ECMWFFLT2_500_rhum_090.txt.gz
RH
4 4 4 4 4 4 3 3 3 3 3 3 3 3 3 3 3 3 2 3 3 3 3 3 4 4 4 4 4 4 4 4 3 4 3 3 4 3 3 3 3 3 3 3 3 3 2 2 2 2 2 2
6 6 5 5 5 4 4 4 4 4 3 3 3 3 3 4 4 3 3 3 3 3 4 4 4 4 4 4 4 4 4 4 4 4 4 4 4 4 4 4 3 3 3 3 3 3 3 3 2 2 2 2
7 7 6 6 6 6 6 5 5 5 4 4 4 4 4 4 4 4 4 3 3 3 3 4 4 4 4 4 4 4 4 4 4 4 4 4 4 4 4 4 3 3 3 3 3 3 3 3 3 3 3 3
7 8 7 7 7 7 7 6 6 6 6 6 5 5 5 5 5 5 4 4 4 4 4 4 4 4 4 4 4 4 4 4 4 4 4 4 4 4 4 4 4 4 4 4 3 3 3 3 3 3 3 3
8 9 9 9 8 8 8 8 8 8 7 7 7 6 6 6 5 5 5 5 5 4 4 5 5 5 4 4 4 4 4 4 4 4 4 4 4 4 4 4 4 4 4 4 4 4 4 4 4 4 4 4
9 9 9 9 9 9 9 9 10 10 9 9 8 8 7 7 6 6 6 5 6 6 6 6 5 5 5 5 5 5 5 5 5 5 5 5 5 5 5 5 5 5 5 5 5 5 4 4 4 4 4 4
9 9 9 10 10 10 10 10 10 10 10 10 9 9 9 8 8 8 7 7 7 6 6 6 6 6 6 6 6 6 6 6 6 6 6 6 5 6 5 5 5 5 5 5 5 5 5 5 5 5 4 5
11 10 10 9 9 9 9 10 10 11 11 10 10 9 9 9 9 9 9 9 9 9 9 8 8 8 8 8 8 7 7 7 7 7 7 7 6 6 6 6 6 6 6 6 5 6 5 5 5 5 5 5
37 35 31 27 24 20 16 13 11 10 10 10 10 10 10 10 10 9 9 9 9 9 9 9 9 9 9 9 9 9 9 9 9 9 8 8 8 8 8 7 7 7 6 6 6 6 6 6 6 5 6 5
76 73 70 66 62 57 51 43 36 30 24 19 15 12 11 10 10 10 10 10 11 10 10 10 10 9 9 9 9 9 9 10 10 10 10 9 9 9 9 9 9 8 8 8 7 7 7 7 6 6 6 6
81 82 82 83 83 83 81 77 73 66 59 52 44 37 30 25 20 16 14 12 11 11 12 12 12 12 12 11 11 11 10 10 10 10 10 10 10 9 10 10 9 9 9 9 9 9 8 8 8 8 7 7
63 66 68 70 73 76 79 81 81 81 79 76 73 69 64 58 52 46 39 33 28 23 20 18 17 16 16 16 16 15 15 14 14 13 12 11 11 10 10 10 10 10 10 10 10 9 9 9 9 9 8 8
50 52 53 55 57 60 64 67 70 73 75 76 77 77 76 75 73 71 68 63 59 54 48 43 38 34 30 27 25 23 22 21 20 18 17 16 15 13 12 12 11 10 10 10 10 10 9 9 9 9 9 8
39 40 41 42 44 46 48 51 54 57 60 64 67 69 71 72 73 73 73 73 73 71 69 67 64 60 55 50 45 41 36 33 30 27 25 23 21 19 17 16 15 14 13 12 11 10 10 9 9 9 9 9
29 29 29 30 31 33 34 35 37 39 42 45 48 51 54 57 60 63 65 66 68 69 70 70 70 70 69 65 61 58 52 48 45 41 37 33 30 27 25 22 20 19 17 16 15 14 13 12 11 10 9 9
24 24 24 24 24 25 25 26 26 27 28 30 31 34 36 38 41 44 47 49 52 54 56 58 60 61 62 60 60 59 56 54 52 51 48 44 40 36 33 30 27 25 22 20 19 18 17 15 14 13 12 11
23 23 23 23 23 23 23 23 23 24 25 25 26 26 27 28 29 30 32 34 36 38 39 41 42 44 46 47 48 48 49 49 49 49 48 46 44 41 38 34 32 30 26 24 22 21 20 19 18 17 15 15
26 26 26 26 26 25 25 25 25 25 25 25 26 27 27 28 28 28 28 29 29 29 30 30 31 32 33 35 36 37 38 39 40 40 40 40 40 39 38 35 33 32 29 28 26 24 22 21 19 18 17 17
35 34 34 33 32 31 30 31 31 30 30 29 29 29 29 30 31 32 32 31 32 32 31 30 29 29 29 30 31 31 32 32 33 33 33 34 34 34 34 32 32 31 30 29 28 28 27 24 22 21 19 19
47 47 46 45 43 41 40 39 39 39 38 38 38 37 35 34 34 35 35 35 35 36 36 34 33 32 31 31 31 31 31 31 31 31 31 32 31 31 31 30 30 29 29 28 28 28 28 27 25 24 22 21
48 53 56 58 58 56 53 51 50 50 50 48 47 46 45 45 44 42 41 39 39 39 38 37 37 36 35 35 34 34 33 32 32 32 32 33 33 31 30 30 30 29 28 28 27 27 27 26 26 25 24 23
25 33 43 53 62 67 70 68 66 64 63 62 60 58 56 55 54 54 52 50 48 46 44 43 41 41 40 40 39 38 37 36 35 34 33 34 36 34 32 32 34 33 31 29 28 28 28 28 27 26 26 25
7 9 14 22 33 46 59 70 78 81 81 80 78 75 73 71 69 67 65 64 62 60 57 54 51 49 48 47 45 44 43 42 40 39 38 37 38 40 39 37 37 38 37 34 32 30 30 30 29 29 28 28
5 5 5 6 8 13 21 34 50 66 80 89 94 94 91 88 86 84 82 79 77 76 74 71 67 65 62 59 56 53 51 49 49 48 46 44 43 45 47 46 43 42 42 41 39 37 34 33 33 33 32 31
8 7 7 7 7 7 7 8 13 23 37 56 75 91 100 100 98 96 95 95 93 92 90 88 86 84 82 80 76 71 66 62 60 58 56 55 54 53 54 56 54 49 45 45 46 45 43 41 40 39 37 35
13 12 11 10 9 9 9 9 9 8 10 15 28 48 71 89 97 99 98 98 99 99 99 98 97 97 97 97 96 93 88 82 78 75 71 67 66 65 63 64 67 64 57 52 50 49 49 51 51 48 44 42
16 15 15 14 14 13 12 11 11 11 11 10 11 15 27 47 70 87 97 99 98 98 97 98 98 98 99 100 101 101 100 98 96 93 91 87 84 82 79 77 78 79 76 67 59 54 53 54 58 61 57 50
16 17 18 17 17 16 15 15 14 13 13 13 13 12 12 17 28 47 68 85 96 100 100 99 98 97 97 98 100 100 100 100 100 100 100 100 99 96 95 94 92 92 93 88 78 70 64 58 59 67 71 68
15 17 18 19 19 19 18 17 17 16 15 14 14 14 14 14 14 17 26 42 61 77 89 96 99 100 100 100 99 99 98 98 99 99 99 100 101 100 100 101 101 99 100 100 95 88 81 75 70 68 72 81
14 16 19 20 21 21 20 20 19 18 17 17 16 16 15 15 15 14 14 16 23 34 48 61 74 85 93 98 101 100 98 97 97 97 98 98 98 98 99 99 100 101 101 102 101 99 94 90 87 81 78 83
14 16 18 20 22 22 22 21 21 20 20 19 18 18 18 17 16 16 15 15 14 15 19 25 34 46 59 71 82 91 96 98 97 96 95 95 95 95 96 96 96 97 100 102 103 103 100 96 94 92 91 91

ECMWFFLT2_500_rhum_096.txt.gz
RH
8 8 8 8 8 8 8 8 7 7 6 6 6 6 6 6 6 6 6 6 5 5 4 4 4 4 3 3 3 3 3 3 3 3 3 3 3 3 3 3 3 3 3 3 3 3 2 2 2 2 2 2
8 8 8 8 8 8 8 7 7 7 6 6 6 6 5 5 5 5 5 5 5 5 4 4 4 4 4 4 3 4 3 3 3 3 3 3 3 3 3 3 3 3 3 3 3 3 3 3 3 3 2 2
8 8 8 8 8 8 8 8 7 7 7 7 6 6 6 6 6 5 5 5 5 5 5 5 4 4 4 4 4 3 3 3 3 4 4 4 4 3 3 3 3 3 3 3 3 3 3 3 3 3 3 3
8 8 8 8 8 8 8 8 7 7 7 7 7 7 7 7 6 6 6 6 6 6 5 5 5 5 4 4 4 4 4 4 4 3 3 3 4 4 4 3 3 3 3 3 4 4 4 3 3 3 3 3
7 8 8 8 8 8 8 8 8 8 8 7 7 7 7 7 6 6 6 6 6 6 6 6 6 6 6 5 5 5 5 4 4 4 4 4 4 4 4 4 3 3 3 4 4 4 4 4 4 4 4 4
5 5 5 5 5 5 6 6 6 7 7 7 8 8 8 7 7 7 7 7 6 6 6 6 6 6 6 6 6 6 6 6 5 5 4 4 4 4 4 4 4 4 3 3 4 4 4 4 4 4 4 4
23 22 21 19 18 16 14 12 10 9 8 7 7 6 6 7 7 7 7 7 7 7 7 7 7 7 7 7 6 6 6 6 7 6 6 5 5 5 4 4 4 4 4 4 4 4 4 4 4 4 4 4
50 50 50 49 49 47 45 42 39 36 33 30 27 24 21 19 16 15 13 11 10 9 8 7 7 7 7 8 8 8 8 7 7 7 7 7 6 6 6 5 5 4 4 4 4 4 4 4 4 4 4 4
53 53 53 53 54 54 55 55 54 54 53 53 52 51 49 47 45 43 41 38 35 32 29 25 20 16 12 10 9 8 8 8 8 8 8 8 8 7 7 6 6 6 5 5 4 4 4 4 4 4 4 4
51 50 49 49 49 49 49 49 49 49 50 50 51 52 53 54 55 55 56 56 56 56 56 55 52 48 43 38 32 25 20 16 11 9 8 8 8 8 9 8 8 7 7 6 6 5 5 4 4 4 4 4
40 40 40 40 40 40 40 41 41 41 42 42 43 44 45 46 46 48 49 50 52 53 55 57 60 61 62 62 61 58 55 50 42 34 26 19 14 10 8 8 9 9 9 8 8 7 7 6 5 5 4 4
26 26 26 27 27 27 27 28 28 29 29 30 31 32 33 35 36 37 38 40 41 43 45 46 49 51 53 56 59 61 64 66 67 66 63 57 49 38 28 19 12 9 8 9 9 9 9 8 7 7 6 6
18 18 18 18 19 19 19 20 20 20 21 22 22 23 24 24 25 26 27 28 30 31 33 35 37 39 41 43 46 49 51 55 59 63 67 70 72 71 66 56 44 32 21 14 10 9 9 9 9 9 8 7
14 14 14 14 14 14 14 15 15 16 16 17 18 18 19 20 20 21 22 22 23 23 24 25 26 27 29 31 33 36 38 41 44 48 51 56 60 66 70 73 73 68 58 46 32 22 14 10 9 9 10 10
8 8 8 8 8 8 8 9 9 9 10 11 11 12 13 14 15 17 18 19 20 21 21 22 22 22 23 24 25 26 27 29 32 34 38 41 45 49 54 59 65 70 73 73 67 57 45 32 22 14 10 9
3 4 4 4 4 3 4 4 4 4 4 4 5 5 6 6 7 8 10 11 13 15 17 18 20 21 22 23 23 23 23 24 25 26 28 30 32 35 39 43 48 54 60 66 71 73 71 65 55 42 30 20
2 3 2 2 3 2 2 2 3 3 2 3 2 3 3 3 3 3 3 4 4 6 7 9 11 14 16 19 21 23 24 25 25 25 25 25 26 27 29 31 34 38 43 49 55 61 67 71 72 69 62 51
3 3 3 3 3 3 3 3 3 3 3 3 3 3 3 3 3 2 2 2 2 2 3 3 3 5 6 8 11 14 18 22 25 27 28 28 27 26 26 27 28 30 32 35 40 45 52 58 64 69 72 71
4 4 4 4 4 4 4 4 4 4 4 4 4 4 4 4 4 4 3 3 3 3 3 3 3 3 3 3 3 4 6 9 13 19 24 28 32 33 32 30 28 27 28 29 31 34 38 44 50 56 61 67
5 5 5 5 6 5 5 6 6 6 6 6 6 6 6 6 5 5 5 5 5 5 4 4 4 3 3 3 3 3 3 3 4 6 9 14 21 29 36 39 38 35 31 30 30 31 33 36 40 45 50 56
6 6 7 7 7 7 7 7 7 7 7 7 8 8 7 7 7 7 7 7 6 6 6 6 6 5 5 5 4 4 4 3 3 3 3 4 6 11 18 29 39 45 45 41 37 35 35 36 37 40 44 48
8 8 8 8 8 8 8 8 8 8 8 9 9 9 9 9 8 8 8 8 8 8 7 7 7 7 7 6 6 6 6 5 5 4 3 3 3 3 4 8 16 27 40 49 53 51 47 43 41 42 44 46
11 11 11 11 11 11 11 10 10 10 10 10 10 10 10 10 9 9 9 9 9 9 9 8 8 8 8 7 7 7 7 7 6 6 5 5 4 3 3 3 3 6 14 27 43 57 64 63 58 54 53 52
15 15 14 14 14 14 13 13 13 12 12 12 12 11 11 11 11 11 11 11 11 11 11 11 10 10 9 9 8 8 8 8 7 7 7 6 6 5 4 3 3 3 3 6 14 29 49 66 76 78 73 67
17 17 17 16 16 16 15 15 15 15 15 15 14 14 14 13 13 13 13 13 13 13 13 13 13 13 12 11 10 10 9 9 9 8 8 7 7 6 5 4 4 3 3 3 3 6 15 31 54 75 89 91
20 20 19 19 18 18 18 18 18 18 18 18 18 17 17 17 16 16 16 15 15 15 15 16 16 16 15 14 13 12 11 11 10 10 9 8 8 7 6 5 5 4 4 4 4 4 4 7 16 34 60 85
22 22 22 21 21 21 21 21 21 22 22 22 22 21 21 20 19 19 18 17 17 17 17 18 18 18 18 17 15 14 13 13 12 11 10 9 9 8 7 6 5 5 5 5 4 5 5 6 6 8 17 38
25 25 24 24 24 24 24 24 24 24 25 25 24 24 23 21 21 20 20 19 19 20 20 21 21 21 20 19 18 17 16 15 14 13 12 11 10 8 7 7 6 6 6 6 6 6 6 6 7 8 8 9
27 27 27 27 27 27 27 27 27 27 27 27 26 26 25 23 23 24 24 24 24 25 25 25 24 24 22 21 20 19 17 16 15 14 13 12 10 9 8 8 8 8 8 8 7 7 8 8 8 9 9 10
28 29 29 29 29 29 29 29 29 30 29 29 29 28 28 27 27 28 29 29 30 30 29 28 27 26 24 23 22 21 19 17 16 15 13 12 11 10 9 9 9 10 11 12 12 10 9 9 10 10 10 10
29 29 29 30 30 31 31 32 32 32 32 32 32 32 32 31 30 31 32 33 33 33 32 31 29 28 26 25 23 21 20 18 17 15 14 12 11 10 10 11 11 12 13 15 16 15 14 12 11 11 12 12

ECMWFFLT2_500_rhum_099.txt.gz
RH
11 11 11 10 10 10 9 9 9 9 9 9 9 9 9 8 8 8 8 8 8 7 7 7 7 7 7 7 7 6 6 5 5 4 4 4 3 3 3 3 3 3 3 3 3 3 3 3 2 2 2 2
8 8 8 8 8 9 9 9 9 9 9 9 9 9 8 8 8 8 8 8 7 7 7 6 6 6 6 6 5 5 5 6 5 5 5 4 4 3 3 3 3 3 3 3 3 3 3 3 3 3 2 2
8 7 7 7 7 7 7 7 7 7 7 7 7 7 7 7 7 7 7 7 7 7 7 7 7 7 7 7 6 6 5 5 5 5 5 4 4 4 4 3 3 3 3 3 3 3 3 3 2 2 3 3
7 7 7 6 6 6 6 6 7 7 7 7 7 7 7 7 7 7 7 7 7 6 6 6 6 6 6 7 7 7 7 7 6 6 6 5 5 4 4 4 3 3 3 3 3 3 3 3 3 3 2 2
10 10 10 9 9 9 8 7 7 6 6 6 5 5 5 5 5 5 6 6 6 6 7 7 7 7 6 6 6 6 6 6 7 7 7 7 7 6 6 5 5 4 3 3 3 3 3 3 3 3 3 3
35 34 34 33 33 32 31 29 27 25 24 22 20 18 15 13 12 10 9 8 7 6 6 5 5 5 5 6 6 6 6 6 7 6 7 7 7 7 7 7 7 6 5 4 4 3 3 3 3 3 3 3
56 56 55 54 53 52 51 49 48 47 45 44 42 40 38 36 34 32 30 27 25 23 20 18 15 12 10 8 6 5 5 5 5 6 6 7 7 7 7 8 8 8 7 7 6 6 5 4 3 3 3 4
57 56 55 54 53 53 52 51 51 50 49 49 48 48 47 46 46 45 44 43 42 41 40 39 37 34 31 28 24 20 16 13 10 7 6 5 5 6 6 7 8 8 8 8 8 7 7 6 6 5 4 4
42 41 41 40 40 39 40 40 40 40 41 41 41 42 42 43 43 43 43 43 43 43 43 43 44 44 44 43 42 40 38 36 32 28 24 19 14 11 8 7 6 6 7 8 8 9 9 8 8 7 6 6
25 25 24 24 24 24 24 24 24 25 25 26 27 27 29 30 31 32 33 34 35 36 37 37 38 39 40 41 41 42 43 43 43 43 42 40 37 33 28 24 19 14 10 8 7 7 8 9 9 9 8 8
15 15 15 15 15 15 15 15 15 15 15 15 16 16 17 17 18 19 20 21 22 23 24 25 27 28 29 31 32 34 36 37 38 40 41 42 43 44 43 43 41 37 32 27 20 15 10 7 7 8 9 9
11 11 10 10 10 10 10 10 10 10 10 10 10 11 11 11 11 12 12 13 13 14 15 15 16 17 18 19 21 22 24 26 28 30 32 34 36 38 40 42 44 45 46 46 44 40 33 24 16 11 8 8
6 6 6 6 6 6 6 6 6 6 6 6 6 6 6 6 7 7 7 8 8 9 9 10 10 11 12 13 13 14 15 16 18 19 21 23 25 28 30 33 35 38 41 43 46 49 50 49 43 36 27 18
3 3 3 3 3 3 3 3 3 3 3 3 3 3 3 3 3 3 4 4 4 4 5 5 6 7 7 8 9 10 11 12 13 14 15 16 17 19 20 22 24 27 30 33 36 39 43 47 51 53 52 47
2 2 2 2 2 2 2 2 2 2 2 2 2 2 2 2 2 2 2 2 2 2 2 3 3 3 3 4 4 5 6 6 8 9 10 11 13 14 15 17 18 19 21 23 25 28 31 35 39 44 49 54
3 3 3 3 3 3 3 3 3 3 3 3 3 3 3 3 3 3 3 3 3 3 3 3 2 2 2 2 2 2 3 3 3 4 5 6 7 8 10 11 13 15 17 19 20 21 23 25 27 31 35 40
3 3 3 4 4 4 4 4 4 4 4 4 4 4 4 4 4 4 4 4 3 3 3 3 3 3 3 3 3 3 2 2 2 2 2 3 3 3 4 5 7 8 10 13 16 19 20 22 22 23 25 28
4 4 4 5 5 4 5 5 5 5 5 5 5 5 5 5 5 5 5 5 4 5 4 4 4 4 4 4 4 3 3 3 3 3 3 3 2 2 2 2 3 3 4 5 7 10 13 17 20 23 24 24
5 5 6 5 6 6 6 6 6 6 6 6 6 6 6 6 6 6 6 5 5 5 5 5 5 5 5 5 5 5 5 4 4 4 4 4 3 3 3 3 3 2 2 2 3 3 5 7 10 15 19 23
7 7 7 7 8 8 8 8 8 8 8 8 8 8 8 8 8 8 7 7 7 7 7 7 6 6 6 6 6 6 6 6 6 6 5 5 5 5 4 4 4 4 4 3 3 3 3 3 3 5 7 12
9 9 9 9 9 9 10 10 10 10 10 11 11 11 11 11 11 10 10 9 9 9 8 8 8 8 8 7 7 7 7 7 7 7 7 6 6 6 6 5 5 5 5 5 5 4 4 4 3 3 3 3
11 11 11 11 11 12 12 12 12 12 12 12 12 12 13 13 13 13 12 12 12 11 11 10 10 9 9 9 9 8 8 8 8 8 7 7 7 7 6 6 6 6 6 6 5 5 5 5 5 4 4 3
13 13 13 13 13 13 14 14 14 14 14 14 14 15 15 15 15 14 14 14 13 13 13 12 12 11 11 10 10 10 10 9 9 9 8 8 8 8 8 7 7 7 7 6 6 6 6 6 6 6 5 5
15 15 15 15 15 16 16 17 17 17 17 17 17 18 18 18 17 17 16 16 16 15 15 15 14 14 13 13 13 12 12 11 11 11 10 10 9 9 9 9 8 8 8 7 7 7 6 6 6 6 6 6
17 17 18 18 18 19 19 20 20 20 20 20 20 20 20 20 20 19 19 18 18 18 18 17 17 17 17 16 16 15 14 14 13 13 12 12 11 11 10 10 10 9 9 9 8 8 8 7 7 6 6 6
20 21 22 22 22 22 22 22 21 21 21 21 21 21 21 21 21 21 21 21 21 20 21 20 20 20 20 19 19 18 17 16 15 15 14 14 13 13 12 12 12 11 10 10 9 9 9 9 9 8 7 7
25 25 26 26 26 26 26 25 24 24 23 23 23 23 23 23 23 23 23 23 22 22 22 22 23 23 23 22 21 21 20 19 18 17 17 16 16 16 15 15 14 13 12 12 11 10 10 10 10 9 8 8
29 30 30 30 30 30 31 30 30 28 27 27 27 26 26 26 26 26 25 25 25 24 24 24 24 24 24 24 24 23 23 22 22 21 21 21 20 20 19 18 18 17 16 14 13 13 12 11 10 10 9 9
34 35 35 35 35 35 36 36 35 33 31 31 30 30 29 29 29 29 28 28 28 27 27 27 27 27 27 27 26 26 25 25 25 25 25 25 25 24 23 22 21 21 20 19 17 15 15 14 12 11 10 9
40 41 40 40 40 40 40 40 38 36 35 34 34 33 32 32 32 32 32 32 31 31 31 30 30 30 30 30 29 28 28 28 28 28 28 28 28 27 26 25 24 24 23 22 20 19 17 16 14 12 11 10
44 44 44 44 44 44 44 43 41 40 39 39 38 37 37 37 36 36 36 36 36 36 35 34 34 34 34 34 33 32 32 32 31 31 30 30 29 29 28 27 26 24 23 23 22 21 20 18 16 14 12 11

ECMWFFLT2_500_rhum_102.txt.gz
RH
11 10 10 10 10 10 10 10 10 11 10 11 10 10 10 9 9 9 9 9 9 9 9 9 9 9 9 9 9 9 9 8 8 8 8 8 8 8 8 8 7 6 5 5 4 4 4 4 4 3 3 3
10 9 9 9 9 9 9 9 8 8 8 8 8 8 8 8 8 8 8 8 8 8 8 8 8 8 8 8 8 7 7 7 7 7 6 6 6 6 6 6 6 7 7 6 5 5 4 4 3 3 3 3
9 9 9 8 8 8 8 8 7 7 7 7 7 6 6 6 6 6 7 7 7 7 7 7 7 7 7 7 7 7 7 7 7 7 7 7 7 6 6 6 5 5 5 5 5 5 5 4 4 4 3 3
12 11 11 11 12 12 12 12 12 12 12 11 11 10 9 8 7 7 6 6 5 5 5 5 5 6 6 6 6 6 6 6 6 6 6 6 7 6 6 6 6 6 6 5 5 5 5 5 4 4 4 4
28 29 30 31 32 33 34 34 35 35 34 33 32 31 30 28 26 24 22 20 18 15 13 11 10 8 8 7 6 6 5 5 5 5 5 6 6 6 6 6 6 6 6 6 6 6 5 5 5 4 4 4
55 55 55 54 54 54 54 54 54 53 53 52 51 50 49 48 47 46 44 42 41 38 36 33 30 28 25 22 19 17 14 11 10 8 7 5 5 5 5 5 6 6 6 7 7 7 6 6 6 5 5 4
63 62 60 59 57 56 55 54 53 51 50 50 49 48 48 47 47 46 46 46 46 46 45 45 44 43 42 40 38 36 33 30 27 24 21 18 15 12 10 8 6 5 5 5 6 6 7 7 7 6 6 5
49 47 44 42 41 39 37 36 35 34 33 33 32 32 32 32 32 32 33 33 34 35 36 36 37 38 39 40 40 41 40 40 39 38 36 35 33 30 27 24 20 16 13 9 7 6 5 6 6 7 7 7
27 25 23 22 20 19 18 17 17 16 16 16 15 15 15 16 16 16 17 17 18 19 20 21 22 23 25 26 28 30 31 33 34 35 36 37 38 38 37 36 35 33 30 27 22 18 14 10 8 6 6 6
12 11 10 9 9 8 8 7 7 7 7 7 6 7 7 7 7 7 7 8 8 8 9 9 10 11 12 13 14 15 17 18 20 22 24 26 29 31 33 34 36 37 37 37 36 33 31 27 23 18 13 9
5 5 5 4 4 4 4 4 3 3 3 3 3 3 3 3 3 3 3 3 4 4 4 4 4 5 5 6 6 7 7 8 9 10 12 13 15 17 20 23 25 28 30 33 34 36 36 36 36 34 31 26
3 3 2 2 2 2 2 2 2 2 2 2 2 2 2 2 2 2 2 2 2 2 2 2 2 2 3 3 3 3 3 4 4 5 5 6 7 8 9 11 13 15 18 20 23 26 29 32 34 36 37 37
2 2 2 2 2 2 2 2 2 2 2 2 2 2 2 2 2 2 2 2 2 2 2 2 2 2 2 2 2 2 2 2 2 2 3 3 3 4 4 5 6 7 8 10 12 14 17 20 23 27 30 33
2 2 2 2 2 2 2 2 2 2 2 2 2 3 3 2 3 2 2 2 2 2 2 2 2 2 2 2 2 2 2 2 2 2 2 2 2 2 2 2 3 3 4 4 5 6 8 10 12 15 18 22
2 3 3 3 3 3 3 3 3 3 3 3 3 3 4 3 3 3 3 3 3 3 3 3 3 3 3 3 3 3 3 3 2 2 2 2 2 2 2 2 2 2 2 2 3 3 4 4 6 7 9 11
3 3 3 3 4 4 4 4 4 4 4 5 5 5 5 5 5 5 5 5 5 5 4 4 4 4 4 4 4 4 3 3 3 3 3 3 3 3 3 3 3 2 2 2 2 2 2 2 3 3 4 5
4 4 4 4 5 5 5 5 5 6 6 6 6 6 6 6 6 6 6 6 6 6 6 6 6 6 6 5 5 5 5 5 4 4 4 4 4 4 3 3 3 3 3 3 3 3 2 2 2 2 2 2
5 6 6 6 6 6 6 7 7 7 7 7 7 7 7 7 7 7 7 7 7 7 7 7 7 7 7 7 7 7 7 7 6 6 6 5 5 5 5 4 4 4 4 4 4 4 3 3 3 3 3 2
7 7 7 7 7 8 8 8 8 8 8 8 8 8 9 9 9 9 8 8 8 8 8 8 8 8 8 8 8 8 8 8 8 8 8 7 7 7 6 6 6 5 5 5 4 4 4 4 4 4 3 3
8 8 8 8 9 9 9 9 9 10 10 10 10 10 10 10 10 10 10 10 10 10 10 10 10 10 10 10 10 10 10 10 10 10 9 9 9 9 8 8 7 7 7 6 6 6 5 5 5 5 5 4
9 9 10 10 10 10 11 11 11 12 12 12 12 12 12 12 12 12 13 13 12 12 12 12 12 12 12 12 12 12 12 12 12 11 11 11 11 10 10 10 9 9 9 8 8 7 7 7 6 6 6 5
11 11 12 12 12 13 13 14 14 15 15 15 15 16 16 16 16 16 16 16 16 16 15 15 14 14 14 14 14 14 14 14 14 13 13 13 12 12 12 11 11 11 10 10 10 9 9 8 8 7 7 7
14 15 16 16 17 17 18 18 19 19 19 20 20 20 20 20 20 20 20 20 20 19 19 18 18 17 17 16 16 16 16 16 16 15 15 15 14 14 13 13 13 12 12 12 11 11 11 10 10 9 8 8
18 19 20 21 22 22 23 23 24 24 24 24 25 25 25 26 26 26 26 26 25 25 24 23 22 21 20 19 19 18 18 17 17 17 17 17 16 16 15 15 14 14 14 13 13 13 12 12 12 11 10 10
21 23 24 25 26 27 28 29 29 29 29 29 29 30 31 32 31 31 31 30 30 29 29 27 26 25 24 23 22 21 20 19 19 18 18 18 18 18 18 17 17 16 16 15 15 14 14 14 13 13 12 11
25 26 27 29 31 32 33 33 33 33 33 33 33 35 37 37 37 36 35 35 34 33 32 31 30 28 27 26 25 25 24 23 22 21 20 20 19 19 19 19 19 19 18 17 16 16 16 15 15 14 14 13
29 30 32 34 35 36 37 38 38 38 38 38 38 40 41 41 41 40 39 38 37 37 36 35 34 32 31 30 29 29 28 28 27 25 24 23 22 21 20 20 20 20 20 19 18 18 17 16 16 16 15 15
33 34 36 38 39 40 41 42 43 44 44 43 43 46 46 46 45 44 43 42 41 40 40 39 38 36 35 34 33 33 32 31 30 29 27 25 24 23 23 22 22 22 22 21 20 19 18 18 17 17 17 16
37 38 40 42 43 44 44 45 47 49 49 48 49 51 52 50 49 48 46 45 44 43 43 42 42 41 40 38 37 36 35 34 33 32 30 28 27 26 26 26 25 24 24 23 23 21 20 19 19 18 18 17
41 43 45 46 47 46 47 48 50 53 54 54 55 57 57 55 53 52 50 48 47 47 47 47 46 46 45 43 41 40 38 38 36 34 33 31 30 30 30 30 29 28 26 25 25 24 24 23 21 20 19 18
45 48 50 50 50 49 51 53 56 59 60 60 61 63 61 59 57 55 53 51 51 51 50 51 52 52 51 49 47 45 43 41 39 38 37 35 34 34 33 33 32 31 30 29 28 27 27 27 26 24 22 21

ECMWFFLT2_500_rhum_105.txt.gz
RH
29 28 27 24 21 18 15 14 13 12 11 12 12 12 12 12 13 12 12 12 12 12 12 11 11 11 10 9 9 9 10 10 10 10 11 11 11 11 11 11 11 11 10 10 10 9 9 8 8 8 8 8
17 17 17 16 15 14 13 12 11 10 10 9 9 9 9 9 9 8 9 8 8 8 8 8 9 9 9 8 8 8 8 8 8 8 8 8 8 8 8 8 8 8 8 8 8 8 8 8 7 7 7 7
14 14 13 13 12 12 11 11 10 10 9 9 9 9 9 9 8 8 8 8 8 8 7 7 7 7 7 7 7 7 7 7 7 7 7 7 7 7 7 7 7 7 7 7 7 7 7 7 7 6 6 7
18 18 17 17 18 18 18 18 18 18 19 19 19 19 19 18 18 18 17 17 17 16 15 15 13 13 12 11 10 9 8 8 7 7 6 6 6 6 6 6 6 6 6 7 7 7 7 7 7 7 6 6
27 27 28 29 30 31 33 34 35 35 36 37 37 38 38 38 38 37 37 36 36 35 33 32 31 30 28 27 25 23 22 21 19 18 16 15 13 11 10 9 8 7 7 6 6 6 6 6 6 6 7 7
40 41 42 43 43 45 46 47 48 48 48 48 48 49 49 49 48 48 48 47 46 46 45 44 43 43 42 41 39 38 38 37 36 34 33 31 29 27 25 22 20 17 15 13 12 10 8 7 6 5 5 6
51 51 51 51 50 50 49 49 48 47 45 44 44 43 42 41 40 39 38 38 37 37 37 37 36 37 37 37 37 37 38 38 38 38 38 39 38 38 37 36 35 33 30 28 26 24 21 18 14 11 9 7
47 45 43 41 39 36 34 32 30 28 27 25 24 23 22 21 21 20 19 19 19 18 18 18 18 19 19 20 21 21 22 23 25 26 27 28 30 32 33 34 35 36 36 36 36 35 34 32 30 27 24 20
27 24 22 20 19 17 15 14 12 11 10 9 8 8 7 7 7 6 6 6 6 6 6 6 6 6 6 7 7 7 8 8 9 10 11 13 14 16 18 20 23 25 27 29 31 33 34 35 36 36 35 34
11 9 8 7 6 6 5 5 4 4 3 3 3 3 3 2 3 2 2 2 2 2 2 2 2 2 2 2 3 3 3 3 3 3 4 4 5 5 6 7 9 11 12 15 17 19 22 25 28 30 32 34
4 4 3 3 3 3 3 2 2 2 2 2 2 2 2 2 2 2 2 2 2 2 2 2 2 2 2 2 2 2 2 2 2 2 2 2 2 2 2 3 3 3 4 5 6 8 9 11 14 17 19 23
2 2 2 2 2 2 2 2 2 2 2 2 2 2 2 2 2 2 2 2 2 2 2 2 2 2 2 2 2 2 2 2 2 2 2 2 2 2 2 2 2 2 2 2 2 3 3 4 5 6 8 10
2 2 2 2 2 2 2 2 2 2 2 2 2 2 2 2 3 3 3 3 3 3 3 3 3 3 3 3 3 3 3 3 3 2 2 3 2 2 2 2 2 2 2 2 2 2 2 2 2 3 3 4
2 2 2 2 2 2 2 2 2 2 3 3 3 3 3 3 3 3 4 4 4 4 4 4 4 4 4 4 4 4 4 4 4 4 4 3 3 3 3 3 3 3 3 2 2 2 2 2 2 2 2 2
2 2 2 2 3 3 3 3 3 3 3 4 4 4 4 4 4 4 5 5 5 5 5 5 5 5 5 5 5 5 5 5 5 5 5 4 5 4 4 4 4 4 4 3 3 3 3 3 2 2 2 2
3 3 3 3 4 4 4 4 4 4 4 5 5 5 5 5 6 6 6 6 6 6 6 6 6 6 6 6 6 6 6 6 6 6 6 6 6 5 5 5 5 5 5 5 5 4 4 4 4 3 3 3
4 4 4 5 5 5 5 5 5 5 6 6 6 6 7 7 7 7 7 7 7 8 8 8 8 8 8 8 8 8 8 8 7 7 7 7 7 7 7 6 6 6 6 6 6 5 5 5 5 5 4 4
5 5 6 6 6 6 6 6 6 7 7 7 7 8 8 8 9 9 9 9 10 10 10 10 10 10 11 11 11 10 10 10 9 9 9 9 8 8 8 7 7 7 7 7 7 7 7 6 6 6 6 6
7 7 7 7 7 7 7 7 7 8 8 9 9 10 11 11 11 11 12 12 12 12 13 13 13 13 13 13 14 14 13 13 12 12 12 11 11 10 10 10 9 9 8 8 8 8 8 8 8 7 7 7
9 9 9 9 9 9 9 9 10 10 11 12 12 13 14 14 15 15 15 15 15 16 16 16 16 16 16 17 17 17 17 17 16 16 15 15 14 14 13 12 12 11 10 10 10 9 9 9 9 9 9 8
11 12 12 12 12 12 12 12 13 14 14 14 15 16 16 17 17 18 18 19 19 19 19 19 19 19 19 20 20 21 21 20 20 20 19 19 18 18 17 16 15 15 14 13 12 12 11 11 11 11 10 10
14 14 14 15 15 15 15 15 15 15 16 16 16 17 18 18 19 20 21 22 22 22 23 22 22 22 22 23 24 24 24 24 24 23 23 22 21 21 20 20 19 18 17 16 15 15 14 14 13 12 12 12
17 17 17 17 17 17 17 17 17 17 17 17 18 18 19 20 21 22 23 24 25 25 25 26 26 26 26 27 27 27 27 27 27 27 26 25 25 24 23 23 22 21 20 18 17 16 16 15 15 13 13 12
20 20 20 20 19 19 19 19 18 18 19 19 20 21 22 23 23 25 26 27 27 27 27 28 29 30 31 31 31 31 31 30 30 30 29 29 28 27 26 25 24 24 23 21 19 18 17 17 16 14 13 13
23 23 22 22 21 21 21 21 22 22 23 24 25 26 26 26 27 28 29 29 29 30 30 31 32 34 35 35 35 34 33 33 33 32 32 31 30 29 29 28 27 26 25 24 22 20 19 19 17 16 15 15
25 25 23 22 22 23 23 24 26 27 27 29 30 30 29 29 31 32 33 33 33 34 35 36 37 38 38 38 37 36 35 36 36 35 35 34 33 31 30 30 29 28 28 27 25 23 22 21 20 19 17 16
27 26 24 25 25 26 27 28 31 32 32 34 34 32 32 34 35 37 38 38 39 40 41 42 42 43 43 42 40 39 39 39 39 39 38 37 36 35 34 33 32 31 32 32 29 28 26 25 24 23 21 19
29 28 28 30 31 32 32 33 36 38 39 40 39 38 38 40 42 43 44 44 45 46 46 47 47 47 47 46 44 43 42 42 42 42 41 40 39 39 38 37 36 34 34 36 35 33 31 30 28 27 25 23
35 35 36 37 37 38 38 39 40 44 45 43 43 45 45 47 49 50 51 51 51 51 51 51 51 52 50 48 47 46 46 45 44 44 44 44 43 42 42 42 42 40 38 38 39 38 36 34 32 30 28 25
42 42 41 41 42 42 42 42 44 47 47 44 45 49 50 51 54 56 57 57 55 54 54 55 55 56 54 51 50 50 51 51 50 48 48 47 46 45 45 45 46 46 44 42 42 42 40 38 34 31 28 26
46 46 46 45 46 47 47 47 48 48 47 45 46 50 51 52 56 59 60 59 59 59 58 59 60 59 59 58 58 58 58 57 56 54 52 51 50 48 48 49 49 49 48 45 43 42 40 38 36 33 30 27

ECMWFFLT2_500_rhum_108.txt.gz
RH
62 58 54 51 48 46 44 44 42 41 39 37 35 32 29 26 24 22 21 19 18 18 18 18 17 17 16 16 15 15 15 15 15 15 15 14 14 14 14 14 14 16 17 19 20 21 21 22 22 22 22 22
42 38 35 32 30 28 26 26 25 25 24 23 22 21 19 17 16 15 14 12 11 11 10 10 10 10 9 9 9 9 9 9 9 9 9 10 10 10 10 10 10 10 10 11 11 12 13 14 14 15 16 17
27 25 23 22 21 20 19 18 17 17 16 16 15 14 14 13 13 12 12 11 11 10 10 10 10 10 10 9 9 9 9 9 9 8 8 8 8 8 7 7 7 7 7 8 8 8 9 9 9 10 10 11
23 22 22 21 21 21 20 20 19 19 19 18 18 18 18 18 19 19 19 18 18 18 18 18 18 18 18 18 18 18 18 18 18 17 16 16 15 14 13 12 11 9 8 8 7 7 7 7 7 7 7 7
27 26 26 26 26 26 26 26 26 27 27 27 28 28 28 29 29 29 29 29 29 30 30 30 30 30 30 30 30 31 31 32 32 32 31 30 29 28 27 26 24 23 20 18 15 13 11 9 9 8 7 7
31 32 32 33 34 34 35 35 35 35 35 36 36 36 36 36 36 36 36 37 37 37 38 38 38 37 37 37 36 36 37 37 38 38 38 38 37 37 37 36 36 35 34 33 31 28 25 22 19 17 14 13
39 40 41 42 42 43 43 42 42 41 40 40 39 38 38 37 36 35 35 34 34 33 32 32 31 30 29 29 28 28 28 29 29 29 30 30 30 31 31 31 32 32 33 33 34 34 34 33 31 30 27 25
47 47 47 46 45 43 41 39 37 34 32 30 28 26 24 23 21 20 19 18 17 17 16 15 14 14 13 13 12 12 13 13 13 13 14 15 15 15 16 17 17 18 19 20 22 23 24 26 27 29 30 31
45 42 39 36 33 29 26 22 20 17 15 13 11 10 9 8 7 6 6 5 5 4 4 4 4 4 4 3 3 3 3 3 4 4 4 4 4 4 5 5 6 6 7 8 9 10 11 12 13 15 17 20
29 25 21 18 15 12 10 8 7 6 5 4 3 3 3 2 2 2 2 2 2 2 2 2 2 2 2 2 2 2 2 2 2 2 2 2 2 2 2 2 2 2 2 2 3 3 3 4 4 5 6 7
13 10 8 6 5 4 3 3 3 2 2 2 2 2 2 2 2 2 2 2 2 2 2 2 2 2 2 2 2 2 2 2 2 2 2 2 2 1 2 1 2 2 2 2 2 2 2 2 2 2 2 2
5 3 3 3 2 2 2 2 2 2 2 2 2 2 2 2 2 2 2 2 2 2 2 2 2 2 2 2 2 2 2 2 2 2 2 2 2 2 2 2 2 2 2 2 2 2 2 2 2 2 2 2
3 2 2 2 2 2 2 2 2 2 2 2 2 2 2 2 2 2 2 2 2 2 2 2 2 2 3 2 3 3 3 3 3 3 3 3 3 3 3 3 3 3 2 2 2 2 2 2 2 2 2 2
2 2 2 2 2 2 2 2 2 2 2 2 2 2 2 3 3 3 3 3 3 3 3 3 3 3 3 3 3 4 4 4 4 4 4 4 4 4 4 4 4 4 4 4 3 3 3 3 3 3 3 3
2 2 2 2 2 2 2 2 2 2 3 3 3 3 3 3 3 3 3 3 3 4 4 4 4 4 4 4 5 5 5 5 5 5 5 5 6 5 6 6 6 6 6 6 5 5 5 5 4 4 4 4
2 2 2 2 2 3 3 3 3 3 3 4 4 4 4 4 4 4 4 4 4 4 5 5 5 5 6 6 6 6 6 6 6 6 7 7 7 7 8 8 8 8 8 8 8 8 7 7 7 6 6 6
2 3 3 3 3 4 4 4 4 4 4 5 5 5 5 5 5 5 5 5 5 5 6 6 6 6 7 7 7 7 7 7 8 8 8 8 8 9 9 9 9 9 10 10 10 10 9 9 9 9 8 8
3 4 4 4 4 5 5 5 5 6 6 6 6 6 6 6 6 6 7 6 6 7 7 7 7 7 8 8 8 8 9 9 9 9 9 9 9 9 10 10 10 10 10 10 10 10 10 10 10 10 10 10
4 5 5 5 6 7 6 6 7 7 7 8 8 9 9 8 8 8 8 8 8 8 8 8 9 9 9 9 9 10 10 10 10 10 10 11 11 11 11 11 11 11 11 11 11 11 11 10 10 10 10 10
6 6 7 7 7 8 8 8 8 9 10 10 10 11 11 10 10 10 10 9 9 9 9 10 10 11 11 11 11 11 12 12 12 12 13 13 13 13 13 13 13 13 12 12 12 12 12 11 11 11 11 11
8 8 9 10 10 10 11 10 10 11 12 12 12 13 14 13 11 11 11 11 11 11 11 11 12 12 12 13 13 14 14 15 15 15 15 15 15 16 15 16 16 16 16 15 15 15 14 14 13 12 12 12
10 11 12 12 13 13 13 13 12 13 14 14 13 13 14 14 13 13 13 12 12 13 13 14 14 15 16 16 17 17 17 18 18 18 18 17 17 18 18 19 19 19 19 18 18 17 17 17 16 16 15 15
14 14 15 15 15 16 15 15 14 15 15 15 15 14 16 16 15 14 15 14 14 15 16 17 18 18 19 19 20 20 20 20 21 20 20 20 20 20 21 21 21 22 22 21 20 20 19 19 19 18 18 18
16 17 17 16 16 17 17 17 17 17 18 18 17 16 17 17 16 16 17 17 17 19 20 21 21 21 21 22 22 22 22 23 24 24 24 24 24 24 24 24 24 25 25 24 23 23 22 21 21 21 21 21
19 19 18 17 17 18 19 20 20 20 20 19 18 18 20 19 18 20 21 21 23 24 25 25 25 25 25 25 26 26 27 27 27 28 28 28 28 28 28 28 27 27 27 27 26 25 25 24 24 23 23 23
20 20 19 18 19 20 21 22 23 23 23 22 22 23 25 25 24 26 27 27 28 29 29 29 29 29 29 29 30 31 31 32 32 32 32 32 32 32 32 31 30 30 29 28 28 27 27 27 27 26 25 25
22 23 24 24 25 25 25 26 27 28 29 30 30 30 31 30 29 30 31 32 32 32 32 31 31 32 32 33 33 34 34 35 35 36 36 36 36 35 33 32 32 32 31 31 30 28 28 28 29 29 29 28
29 29 30 31 31 30 31 32 32 33 35 36 35 34 34 33 32 33 35 36 36 36 36 35 36 36 36 36 36 36 37 38 38 40 41 41 41 40 38 37 35 34 34 35 35 34 33 32 32 32 32 32
34 34 36 36 35 35 35 35 35 36 38 39 37 38 38 37 36 37 39 40 39 40 40 40 40 40 40 40 40 40 39 40 41 42 43 45 46 45 44 42 41 38 37 38 40 39 38 38 37 37 37 36
38 39 39 39 39 39 38 39 40 42 42 41 41 43 42 41 40 40 40 41 42 43 43 44 44 44 44 44 44 44 43 42 43 44 46 48 50 49 47 47 46 44 42 40 41 41 42 42 41 40 40 40
39 39 39 39 39 39 40 43 44 45 44 42 43 45 45 45 44 44 44 45 45 46 46 47 47 47 47 47 48 47 47 46 46 48 51 54 56 55 53 51 50 50 49 46 43 42 43 46 47 47 45 44

ECMWFFLT2_500_rhum_111.txt.gz
RH
89 88 87 85 83 82 80 78 76 73 71 68 66 64 62 61 59 57 55 53 50 48 45 41 38 35 33 31 30 28 27 27 26 26 25 25 24 24 24 24 24 24 23 23 23 24 24 25 26 28 30 32
82 80 78 74 72 70 68 66 63 60 56 52 48 44 41 40 39 38 36 35 33 31 30 28 26 24 23 21 20 18 17 16 15 14 14 13 13 12 12 13 13 14 14 14 14 15 15 16 16 17 18 19
68 65 62 59 56 53 51 48 44 42 39 36 33 29 27 25 24 23 22 22 21 20 19 18 18 17 16 16 15 15 14 13 13 12 12 11 11 11 10 10 10 10 9 9 9 9 9 9 10 10 10 11
46 43 41 39 36 34 33 31 29 28 27 26 25 24 23 22 22 21 21 20 20 20 20 19 19 19 19 19 19 19 19 19 18 18 18 18 18 17 17 17 16 16 15 14 13 12 12 11 10 9 9 9
37 35 34 32 31 29 28 28 27 27 26 26 26 26 26 26 26 26 26 26 27 27 27 27 27 27 27 27 27 27 27 27 26 26 26 27 27 27 27 27 26 26 26 25 24 23 22 21 19 18 17 15
41 40 38 37 35 33 32 32 31 31 31 31 32 32 32 32 32 32 32 32 32 33 33 33 32 32 32 32 32 31 31 31 31 30 31 31 30 31 30 30 30 30 30 30 30 30 30 29 28 28 27 26
43 41 39 37 36 35 35 35 35 36 36 36 37 37 37 37 36 36 36 35 35 34 33 33 32 31 31 30 29 29 28 27 27 26 26 25 25 24 23 23 22 22 23 23 23 23 24 25 26 27 27 28
41 39 39 39 39 39 39 40 40 40 40 40 39 38 37 35 34 33 31 30 28 26 25 23 22 21 19 18 17 17 16 15 15 14 13 12 12 11 11 10 10 10 9 10 10 10 11 12 13 14 15 17
42 42 43 43 43 42 42 41 39 38 36 33 30 28 25 22 21 19 16 15 13 12 10 9 8 8 7 6 6 6 5 5 5 4 4 4 4 3 3 3 3 3 3 3 3 3 3 3 3 4 5 5
47 46 45 43 41 37 34 31 28 25 22 19 15 13 11 9 7 7 5 4 4 4 3 3 3 2 2 2 2 2 2 2 2 2 2 2 2 2 1 1 1 1 1 1 1 1 1 1 1 1 2 2
44 40 36 32 27 23 19 16 13 11 9 7 5 4 3 3 2 2 2 2 2 2 2 2 2 1 1 2 1 1 1 1 1 1 1 1 1 1 1 1 1 1 1 1 1 1 1 1 1 1 1 1
28 22 19 16 12 9 7 5 4 4 3 2 2 2 2 2 2 2 2 2 2 1 2 1 2 2 1 2 2 2 2 2 2 2 2 2 2 2 2 2 2 2 2 2 2 2 2 2 2 2 2 2
12 8 7 6 4 3 3 2 2 2 2 2 2 2 2 2 1 2 2 2 2 2 2 2 2 2 2 2 2 2 2 2 2 2 2 2 2 2 2 2 2 2 2 2 2 2 2 2 2 2 2 2
4 3 3 2 2 2 2 2 2 2 2 2 2 2 2 2 2 2 2 2 2 2 2 2 2 2 2 2 2 2 2 2 2 2 2 2 3 3 3 3 3 3 3 3 3 3 3 3 3 3 3 3
2 2 2 2 2 2 2 2 2 2 2 2 2 2 2 2 2 2 2 2 2 3 3 3 3 3 3 3 3 3 3 3 3 3 3 3 3 3 4 4 4 4 4 4 4 4 5 4 5 4 4 4
2 2 2 2 2 2 2 2 2 2 2 2 2 2 2 3 3 3 3 3 3 3 3 3 3 3 3 3 3 3 4 4 4 4 4 4 4 5 5 5 5 5 5 6 6 6 6 6 6 5 5 5
2 2 2 2 2 2 2 2 2 2 3 3 3 3 3 3 3 4 4 4 4 4 4 4 4 4 4 5 5 5 5 5 5 5 5 5 5 6 6 6 6 7 7 7 7 7 7 7 7 7 7 7
3 3 3 3 3 3 3 3 3 4 4 4 4 4 4 5 5 5 5 5 5 5 5 5 6 6 6 6 6 6 6 6 6 6 6 6 6 7 7 7 7 7 7 7 7 8 8 8 8 8 9 9
4 4 4 4 4 4 4 4 5 5 5 6 6 6 6 6 6 6 6 5 5 6 6 6 6 7 7 7 7 7 7 7 7 7 7 7 7 7 7 7 7 8 8 8 9 9 9 9 9 10 10 10
5 5 5 6 6 6 6 6 6 6 7 7 8 8 8 8 8 8 8 7 7 8 8 8 8 8 8 8 8 8 8 8 8 7 7 7 7 7 8 8 9 10 10 10 11 11 11 11 11 11 11 11
6 6 7 8 8 8 9 9 9 9 9 10 11 11 11 10 9 9 10 9 9 9 9 10 10 9 9 10 9 9 9 8 8 8 8 9 9 10 11 11 12 13 13 13 13 13 13 13 13 13 13 13
8 9 9 10 10 11 12 12 12 11 11 13 14 14 14 12 11 11 11 11 10 10 11 12 12 11 11 11 11 10 10 10 11 11 12 13 14 14 15 15 16 15 15 15 15 16 16 16 16 16 16 16
12 12 13 14 14 14 15 14 13 12 13 14 15 15 15 14 13 12 12 12 12 12 12 14 14 13 13 13 13 14 15 16 16 17 18 19 19 19 19 19 19 19 19 19 19 20 20 20 20 20 20 19
14 14 15 15 15 15 15 14 13 14 15 16 16 17 18 19 18 16 16 16 16 17 18 18 19 19 19 19 19 20 21 22 22 23 23 23 23 23 22 22 22 22 22 23 23 24 24 24 24 23 23 23
14 15 15 16 16 17 17 18 18 19 20 21 22 23 25 27 26 23 22 22 22 23 24 25 25 25 25 25 25 25 26 26 26 26 26 27 27 26 26 26 26 26 26 26 26 26 26 26 26 25 25 26
18 20 20 21 22 23 23 24 25 25 25 26 27 28 30 32 31 29 27 26 26 27 28 29 29 29 28 28 28 29 29 30 30 30 30 30 31 30 29 29 30 30 29 29 29 28 29 28 28 27 27 27
25 25 25 25 26 26 26 27 28 29 29 29 30 31 32 34 34 33 31 30 29 30 31 32 32 32 32 32 32 33 34 34 35 35 35 34 34 33 33 33 33 34 33 33 32 31 31 32 33 32 30 29
27 27 27 27 27 26 27 28 29 29 30 31 31 30 32 33 34 34 33 32 30 31 33 34 35 35 35 35 35 36 37 38 38 39 39 38 38 37 37 37 36 37 37 36 36 35 34 34 34 35 35 33
28 27 28 27 27 26 26 27 27 28 31 31 29 29 30 30 32 33 33 32 30 29 31 32 34 34 33 33 33 34 36 36 37 39 40 40 40 41 41 41 40 41 41 41 40 39 37 36 35 36 36 36
29 28 28 28 27 27 27 26 27 29 30 28 26 27 27 27 30 31 31 32 30 28 27 27 29 30 30 29 28 29 31 32 34 36 38 39 41 44 44 44 44 45 45 45 45 43 42 40 39 39 38 39
32 32 32 32 31 31 31 32 33 35 33 30 29 29 28 29 30 32 33 34 33 30 27 26 26 27 27 27 26 26 26 28 30 33 36 38 41 43 43 44 45 47 49 49 49 48 47 46 44 43 43 42

ECMWFFLT2_500_rhum_114.txt.gz
RH
81 81 81 82 82 82 85 88 87 85 85 86 86 84 83 82 81 79 77 76 75 74 73 71 69 68 66 64 63 61 58 56 54 52 51 50 49 48 47 46 46 45 44 43 40 38 37 36 35 35 35 35
90 91 92 94 95 95 93 90 87 85 83 82 81 80 79 77 75 73 70 68 65 63 60 57 54 52 50 48 46 43 42 39 37 36 34 33 32 32 31 31 30 30 30 30 29 27 27 26 26 26 26 27
96 97 96 95 93 91 87 84 82 80 78 75 74 72 69 66 63 59 56 52 49 46 43 41 39 37 35 33 32 30 28 27 25 24 23 22 22 21 21 21 20 19 19 19 18 17 16 16 15 15 16 16
90 87 84 82 80 78 75 74 71 69 66 63 62 59 56 52 48 44 40 38 35 33 32 31 30 29 28 27 27 26 25 24 24 23 23 22 21 21 21 21 20 19 19 18 18 17 16 16 15 14 14 13
79 76 72 68 65 62 58 54 51 48 46 45 44 42 40 38 36 34 33 32 31 31 30 30 30 29 29 29 29 28 28 28 28 28 28 28 28 28 28 27 27 26 26 25 25 24 24 23 22 22 21 20
70 67 64 60 55 50 46 43 41 39 38 38 38 36 36 36 35 35 34 34 34 34 33 33 33 33 33 32 32 32 32 32 32 32 31 31 31 31 31 31 30 30 30 29 29 29 28 28 28 28 27 27
60 59 57 55 53 50 48 47 46 44 43 43 42 40 39 38 37 36 36 36 35 35 35 35 34 34 34 34 34 33 33 33 32 32 31 30 30 30 29 28 27 27 27 26 26 25 25 25 25 25 24 25
63 63 63 62 60 58 56 54 52 50 48 46 44 42 40 39 38 38 37 37 37 36 36 35 35 34 34 33 32 31 30 29 28 27 25 24 23 22 20 19 18 17 16 15 15 15 14 14 14 14 13 13
64 62 60 58 57 56 54 53 51 48 47 45 45 43 42 41 41 39 38 37 36 35 33 32 30 29 27 25 24 22 21 19 17 15 14 12 11 10 9 8 8 7 6 6 5 5 5 5 4 5 4 4
56 54 52 50 50 50 50 50 49 48 47 46 45 43 42 40 37 34 31 29 26 23 21 20 18 16 14 12 11 9 9 7 6 6 5 4 4 3 3 3 2 2 2 2 2 2 2 2 2 2 2 2
56 55 54 54 54 54 53 52 50 48 45 42 38 34 31 28 24 20 16 15 12 10 8 8 7 6 5 4 3 3 3 2 2 2 2 2 2 2 2 1 2 1 1 1 1 1 1 1 1 1 1 1
62 61 60 59 57 53 48 43 39 35 30 25 21 17 13 11 10 7 5 5 4 3 3 2 2 2 2 2 2 2 1 2 1 1 1 1 1 1 1 1 1 1 1 2 1 1 1 1 2 1 1 1
61 58 53 48 42 36 28 23 19 15 11 8 7 5 4 3 3 2 2 2 2 2 2 2 2 1 2 2 1 2 1 2 1 2 2 2 2 1 2 2 2 2 2 2 2 2 2 2 2 2 2 2
40 34 29 24 20 15 11 8 6 4 3 3 2 2 2 2 2 2 2 2 2 2 2 2 2 2 2 2 2 2 2 2 2 2 2 2 2 2 2 2 2 2 2 2 2 2 2 2 2 2 2 2
20 16 12 10 7 5 4 3 2 2 2 2 2 2 2 2 2 2 2 2 2 2 2 2 2 2 2 2 2 2 2 2 2 2 2 2 2 3 2 3 3 2 3 3 3 3 3 3 3 3 3 3
11 8 6 5 4 3 2 2 2 2 2 2 2 2 2 2 2 2 2 2 2 2 2 2 2 2 2 3 3 3 3 3 3 3 3 3 3 3 3 3 3 3 3 3 3 3 3 3 4 4 4 4
4 4 3 3 2 2 2 2 2 2 2 2 2 2 2 3 2 3 3 3 3 3 3 3 3 3 3 3 4 4 4 4 4 4 4 4 4 4 4 4 4 4 4 4 4 4 4 4 4 5 5 5
2 2 2 2 3 3 3 3 3 3 3 3 3 3 3 3 3 3 3 4 4 4 4 4 4 4 4 5 5 5 5 5 5 5 5 5 5 5 5 5 5 5 5 5 5 5 5 5 5 6 6 6
3 3 3 4 4 4 4 4 4 4 4 4 4 4 4 5 5 5 5 5 5 5 5 5 6 6 6 6 6 7 7 7 7 7 6 6 6 6 6 6 6 6 6 6 6 6 6 6 6 6 6 6
4 5 5 5 5 5 5 5 5 6 6 6 6 6 6 7 7 7 8 8 8 8 8 8 8 8 9 9 9 9 9 9 8 8 8 8 8 8 7 7 7 7 7 7 7 6 6 6 7 7 7 8
5 5 6 6 6 6 7 7 7 7 8 9 9 9 9 9 10 11 11 11 11 11 11 11 10 10 10 11 11 11 11 10 10 10 9 9 9 9 9 8 8 8 8 8 8 8 8 9 9 10 10 11
7 8 8 9 9 9 9 9 10 10 11 13 13 13 13 12 12 12 12 11 11 11 11 11 11 11 12 12 13 12 13 12 12 12 11 11 11 11 10 10 10 9 9 9 10 10 11 12 12 13 14 14
10 11 12 13 13 13 13 13 13 13 13 14 14 14 14 13 13 13 13 13 13 13 14 14 15 16 16 18 18 17 18 17 17 17 17 16 16 16 15 14 14 14 13 13 13 14 14 14 15 15 16 16
14 14 14 14 14 14 15 14 13 13 14 15 16 17 18 18 19 19 19 19 18 19 19 20 20 20 21 22 21 21 21 20 20 21 20 20 20 20 20 19 19 18 18 18 18 18 18 18 18 19 19 19
14 14 15 15 16 16 16 16 17 18 20 21 22 24 25 26 26 24 23 22 21 21 21 22 22 22 22 23 23 23 23 22 23 23 23 23 23 23 24 24 23 23 23 23 24 24 24 24 24 24 24 24
17 19 20 20 21 22 22 23 24 25 25 26 27 28 30 29 27 25 24 23 22 22 23 23 24 23 23 23 24 23 23 22 22 22 22 22 22 22 23 23 23 23 24 25 26 27 27 27 28 29 29 29
25 26 25 25 25 26 26 27 27 27 27 27 29 30 31 30 27 25 23 22 22 22 22 23 23 22 22 21 22 21 20 20 19 19 18 18 18 18 18 18 18 18 19 21 22 23 23 25 26 27 28 29
28 27 26 26 26 27 27 27 28 27 28 29 29 29 30 29 27 25 24 24 24 23 23 23 24 24 23 22 23 22 21 21 21 20 19 18 17 17 17 16 16 15 15 16 17 18 19 21 21 21 23 25
30 28 28 28 28 29 29 30 31 31 33 34 32 32 33 32 31 31 30 30 30 29 29 29 29 29 28 27 27 27 26 26 26 25 24 23 21 20 20 19 18 17 16 16 15 15 17 17 17 17 18 20
29 28 29 29 29 30 31 32 33 35 37 35 32 33 33 33 35 36 36 36 35 35 34 34 34 34 34 33 33 33 34 33 34 33 30 29 27 26 26 24 23 22 20 18 16 17 17 16 15 16 16 16
29 29 29 29 29 30 30 31 33 36 36 33 32 33 33 34 36 36 36 37 37 36 36 36 36 36 37 36 37 38 38 39 41 40 37 36 34 34 34 32 31 30 28 25 23 21 19 18 17 17 17 16

ECMWFFLT2_500_rhum_117.txt.gz
RH
98 96 91 88 85 82 79 76 78 80 81 79 78 77 77 78 77 75 75 77 80 81 82 82 81 80 78 76 76 77 77 76 75 74 73 72 71 69 67 66 64 63 62 61 60 58 57 55 53 52 51 50
91 91 87 83 79 75 72 68 66 66 67 69 71 75 79 84 85 83 81 80 81 80 79 80 80 79 77 76 75 74 73 72 70 68 66 65 62 60 58 56 54 52 51 50 49 48 47 46 45 44 43 42
80 81 79 78 75 72 69 66 65 65 66 69 75 81 86 87 86 84 82 81 80 79 77 77 76 74 72 69 67 65 62 59 56 53 51 49 46 45 43 41 40 39 38 36 35 35 34 33 31 30 29 28
84 85 84 83 81 80 78 76 77 79 82 84 86 88 88 85 82 80 78 76 74 72 70 69 66 63 60 56 53 50 46 43 41 39 38 36 35 34 33 32 31 31 30 29 28 28 27 27 26 25 24 22
97 97 96 93 91 90 89 88 88 88 89 89 87 85 82 78 75 72 68 65 62 59 57 54 50 47 44 42 40 38 37 36 35 34 33 33 32 32 31 31 31 30 30 30 29 29 29 28 28 27 26 26
97 96 93 90 89 88 86 84 85 86 84 81 78 75 71 66 62 58 55 52 48 46 45 43 41 40 38 38 38 37 37 37 36 35 35 34 34 34 33 33 33 33 32 32 32 31 31 31 31 30 30 30
91 89 86 86 86 85 82 78 78 77 76 74 71 67 62 57 54 52 50 48 47 46 45 45 44 43 42 41 40 39 38 37 37 36 36 35 35 34 34 34 34 34 33 33 32 32 32 31 31 30 30 29
87 84 82 83 81 79 76 74 72 70 68 66 64 62 59 57 55 54 54 53 52 51 50 48 46 45 42 41 40 39 38 37 37 36 36 35 34 34 33 33 32 31 30 30 28 27 27 26 25 24 23 23
85 82 80 78 75 73 73 71 70 68 67 66 66 65 63 62 60 59 57 55 53 51 49 47 45 43 41 40 39 39 38 37 36 35 34 33 31 30 28 26 25 23 21 20 18 17 15 14 13 12 12 11
83 81 80 78 77 76 76 75 73 71 70 68 66 63 60 58 56 54 53 51 49 47 46 45 43 42 41 40 38 37 35 34 32 30 28 25 23 20 18 16 13 11 10 9 8 7 6 5 5 4 4 4
81 81 80 79 78 77 76 74 71 69 66 64 62 59 56 54 53 52 51 50 49 47 45 43 42 40 37 35 32 29 26 23 20 18 16 13 11 9 8 6 5 4 3 3 3 2 2 2 2 2 2 2
80 80 80 79 79 77 75 73 69 67 65 63 63 61 59 58 56 54 51 48 45 41 38 34 31 27 24 21 18 16 12 10 8 7 5 4 4 3 2 2 2 2 2 2 2 2 2 1 2 2 1 2
81 80 79 80 79 78 76 74 72 71 69 67 65 62 59 55 50 43 38 33 28 24 20 17 14 11 9 7 6 5 4 3 3 2 2 2 2 2 2 2 1 2 1 2 2 1 2 2 2 2 2 2
78 77 78 78 78 77 75 73 70 67 63 58 53 48 43 37 30 22 17 13 10 8 6 5 4 3 3 2 2 2 2 2 2 2 2 2 2 2 2 2 2 2 2 2 2 2 2 2 2 2 2 2
78 78 78 76 73 69 65 60 54 47 42 35 28 24 20 15 10 7 5 4 3 2 2 2 2 2 2 2 2 2 2 2 2 2 2 2 2 2 2 2 2 2 2 2 2 2 2 2 2 2 2 2
73 70 66 61 56 50 45 39 32 26 21 16 11 8 6 4 3 2 2 2 2 2 2 2 2 2 2 2 2 2 2 2 2 2 2 2 2 2 2 2 3 2 3 3 3 3 3 3 3 3 3 3
47 42 37 32 28 24 21 18 14 11 8 6 5 4 3 3 2 2 2 2 2 2 2 2 2 2 2 2 2 3 3 3 3 3 3 3 3 3 3 3 3 3 3 3 3 3 3 3 3 3 3 3
19 16 13 11 10 8 7 6 5 4 3 3 3 3 3 3 3 3 3 3 3 3 3 3 3 3 3 3 3 3 3 4 4 4 4 4 4 4 4 4 4 4 4 4 4 4 4 4 4 4 4 4
7 6 6 5 4 4 3 3 3 3 3 3 3 3 3 3 4 4 4 4 4 4 4 4 4 4 4 4 5 5 5 5 5 5 5 5 5 5 5 5 5 5 5 5 5 4 4 4 4 4 4 4
4 4 4 3 3 3 3 3 4 4 4 4 4 4 4 4 4 4 5 5 5 5 5 5 5 6 6 6 7 7 7 8 8 8 8 8 8 8 8 8 8 7 7 7 6 6 6 6 5 5 5 5
5 4 4 4 4 4 4 5 5 5 5 5 6 6 6 6 6 6 6 7 7 7 7 8 8 8 9 9 9 10 11 11 11 11 10 10 10 10 10 9 9 9 8 8 8 7 7 7 6 6 6 6
5 5 6 5 6 6 6 7 7 7 7 7 7 8 8 8 9 9 10 10 11 11 11 12 12 12 11 11 11 11 12 12 12 12 11 11 12 12 12 12 12 11 11 11 10 10 9 9 8 8 7 7
8 8 8 8 8 8 9 10 10 10 10 10 10 11 11 12 13 14 14 14 14 14 14 14 13 12 11 12 13 14 16 17 17 16 16 17 17 17 17 17 17 16 16 16 15 15 14 13 13 12 11 10
11 11 11 12 12 12 13 13 13 13 13 13 14 15 15 15 15 16 16 16 16 17 17 17 17 16 16 18 20 21 22 22 21 21 21 21 21 20 20 20 20 19 20 19 19 18 18 18 18 17 17 16
14 14 15 15 15 16 16 16 15 15 16 16 16 17 17 18 19 20 22 22 22 23 23 23 23 22 23 24 24 24 25 24 23 23 23 22 21 21 21 20 20 20 20 20 19 18 19 19 18 18 17 17
14 16 16 16 17 17 17 17 17 18 19 20 21 23 25 27 28 29 29 29 27 26 26 25 25 26 25 25 24 24 24 23 22 22 22 21 20 19 19 18 18 18 18 17 16 16 16 15 15 15 15 15
17 19 19 20 21 21 22 22 23 25 26 27 30 32 34 35 35 33 31 28 26 25 26 26 26 26 25 25 24 23 23 23 23 23 23 22 21 21 20 20 19 19 19 18 18 18 17 17 17 16 16 16
24 25 25 25 26 27 27 27 28 29 30 32 34 35 36 35 33 30 28 28 27 28 28 29 29 29 29 29 29 28 28 29 29 28 28 28 28 27 26 26 25 25 24 25 25 24 23 22 22 22 22 21
29 29 29 29 29 29 29 30 31 31 33 36 36 35 36 35 33 32 32 33 33 33 33 32 32 32 32 32 32 32 32 32 32 32 33 34 33 31 31 31 30 29 30 30 30 29 28 28 28 28 27 27
32 31 31 30 30 29 30 30 31 33 37 39 37 37 38 36 35 35 35 36 35 35 34 33 34 33 33 34 34 35 34 35 35 36 37 36 36 35 35 35 34 34 35 34 33 33 33 32 31 30 30 30
33 32 31 30 30 30 30 31 32 36 38 37 37 37 37 37 38 38 37 38 38 38 38 39 39 39 39 39 40 40 41 42 43 44 43 43 43 43 43 42 41 42 42 40 40 41 40 39 37 36 34 34

ECMWFFLT2_500_rhum_120.txt.gz
RH
94 96 96 95 88 84 85 86 87 89 88 88 89 87 85 86 85 86 86 85 84 84 84 82 79 75 73 73 77 80 80 81 80 80 78 76 73 71 72 72 73 73 72 72 72 71 70 68 67 66 65 64
87 88 88 85 80 78 80 82 85 88 88 86 87 85 83 82 82 83 84 82 80 79 78 76 75 76 76 75 76 78 78 79 77 76 75 73 70 70 71 71 71 72 72 71 70 69 67 64 63 61 59 58
88 86 85 82 79 79 80 81 85 87 87 87 86 83 80 77 75 75 76 76 76 75 75 76 78 79 80 78 75 74 75 75 75 75 74 72 71 70 70 70 69 67 66 64 63 60 57 55 52 50 48 47
85 83 82 80 78 79 81 82 84 86 86 86 83 78 77 75 73 73 74 76 78 79 81 83 84 82 80 79 76 73 73 73 73 73 72 71 69 67 66 64 62 59 56 53 51 49 46 43 41 39 37 36
84 85 84 82 81 79 78 79 79 79 80 80 78 77 79 80 81 81 83 86 87 87 88 89 86 82 80 78 75 73 71 70 69 68 66 63 60 58 55 53 50 48 46 44 42 41 39 37 35 34 33 33
89 94 95 93 94 90 84 82 80 79 80 81 81 83 85 86 86 85 86 88 88 88 87 85 81 77 74 70 66 63 61 59 57 55 52 50 48 46 45 44 43 41 41 40 39 38 38 37 36 35 34 34
90 96 98 98 99 98 96 92 89 87 87 86 85 84 84 84 84 83 83 84 84 82 79 76 71 67 62 57 54 51 49 48 47 46 45 45 44 43 43 42 41 41 40 39 38 38 37 36 36 35 35 34
88 91 95 96 95 96 97 95 92 91 88 84 82 82 83 83 82 80 79 79 78 76 73 70 65 61 57 54 52 51 50 50 49 49 48 47 46 45 43 42 41 40 39 38 37 36 36 35 35 34 34 34
91 91 93 94 93 91 91 90 90 88 84 81 80 82 82 81 79 77 75 73 72 70 68 65 63 61 59 57 57 56 55 55 54 53 51 49 46 44 42 41 40 39 39 37 37 36 35 34 33 33 32 31
96 95 94 93 91 90 89 88 87 85 83 81 81 81 79 77 75 73 72 71 69 69 67 66 65 64 62 61 59 58 57 55 53 51 49 47 45 43 41 40 39 38 37 35 34 33 31 30 28 27 25 24
99 99 97 95 94 92 91 88 87 85 83 83 83 82 80 78 78 77 76 75 73 71 70 67 65 62 59 57 56 54 53 51 49 47 46 44 43 41 39 37 35 33 31 29 26 24 22 20 18 16 15 14
100 99 98 96 94 93 92 90 88 86 84 84 83 82 81 81 80 79 77 75 72 70 68 65 63 60 58 55 54 52 51 50 48 45 42 40 37 34 31 27 24 22 20 17 15 13 11 10 9 8 7 6
100 98 97 95 94 93 92 91 90 88 86 84 82 82 81 80 79 78 75 73 71 69 67 65 63 62 60 57 55 51 49 46 42 38 34 30 26 22 19 15 12 10 9 8 7 6 5 4 4 3 3 3
101 99 98 97 96 94 94 93 92 90 88 86 85 84 83 82 81 78 76 74 72 71 69 67 64 61 58 54 49 43 37 33 29 24 20 17 14 11 9 7 5 4 4 3 3 2 2 2 2 2 2 2
101 101 101 100 98 96 95 93 91 89 88 87 87 85 84 82 81 78 76 73 70 67 64 60 55 49 44 38 33 27 21 17 13 10 8 6 5 4 4 3 2 2 2 2 2 2 2 2 2 2 2 2
94 94 94 93 92 91 90 89 88 88 87 87 86 83 80 77 74 70 65 60 55 49 43 38 33 26 21 17 14 10 7 5 4 3 3 2 2 2 2 2 2 2 2 2 2 2 2 2 2 2 2 2
93 92 91 91 89 88 86 86 86 86 84 82 79 75 70 65 59 52 44 36 31 26 21 17 13 10 7 5 4 3 2 2 2 2 2 2 2 2 2 2 2 2 2 2 2 2 2 2 2 2 3 2
76 78 79 79 80 80 80 79 77 74 70 65 60 54 49 42 35 29 23 17 14 11 8 6 5 4 3 2 2 2 2 2 2 2 2 2 2 2 3 3 3 3 3 3 3 3 3 3 3 3 3 3
34 37 40 42 44 47 49 49 47 45 41 36 32 28 23 18 14 11 9 7 5 4 3 3 3 3 3 2 3 3 3 3 3 3 3 3 3 3 4 4 4 4 4 4 4 4 4 4 4 4 4 4
12 13 13 14 15 15 16 16 15 15 13 12 12 11 9 7 6 5 4 4 3 3 3 3 3 3 4 3 4 4 4 4 4 4 4 5 5 5 5 5 5 5 5 5 5 5 5 5 5 5 5 5
6 6 6 5 5 5 5 5 4 4 4 5 5 5 5 5 5 4 4 4 4 4 4 4 5 5 5 5 5 5 5 5 6 6 6 7 7 7 8 8 8 8 8 8 8 8 7 7 7 7 7 7
5 5 5 5 5 5 5 5 5 5 5 5 6 5 6 6 6 6 5 5 5 5 6 6 7 7 7 7 7 7 8 8 9 9 10 10 10 11 11 11 10 10 9 9 9 9 9 8 8 8 8 8
6 6 6 6 6 6 6 7 7 7 7 7 7 7 7 7 7 7 7 7 8 8 9 10 10 10 10 10 11 11 12 13 12 12 12 12 13 13 13 12 11 11 11 11 12 12 12 12 12 12 12 13
9 9 8 8 8 8 9 9 9 9 9 9 9 10 10 10 10 10 11 11 12 13 13 14 15 15 15 15 15 15 15 15 14 13 15 17 18 18 18 18 17 17 17 17 18 18 17 17 16 17 17 17
13 12 12 12 12 12 12 13 13 12 13 13 13 13 13 14 14 15 16 16 17 18 18 19 19 19 19 18 17 16 16 16 18 20 23 25 25 25 24 23 22 21 21 22 21 20 19 19 19 19 19 18
14 15 15 15 15 15 15 15 15 15 15 15 16 16 17 18 19 19 20 21 21 21 22 22 22 22 20 19 18 20 22 25 27 28 29 29 28 27 25 24 23 23 23 22 21 19 19 19 18 18 18 18
15 16 16 15 15 15 15 15 16 16 17 17 18 19 21 22 23 24 25 26 26 26 26 27 27 26 25 25 26 29 30 30 30 30 29 28 27 26 26 26 25 24 24 23 23 22 21 22 22 21 21 22
20 19 19 18 17 17 17 17 18 19 20 21 23 25 27 29 30 30 30 30 31 31 31 31 32 31 31 31 32 31 31 30 30 30 30 29 30 30 30 30 29 27 26 27 27 26 24 25 25 25 26 26
25 24 24 23 23 23 23 23 24 24 26 28 31 32 34 35 34 32 32 33 33 34 34 34 34 35 34 34 34 33 33 33 33 33 33 33 32 31 31 31 30 29 29 30 31 29 27 28 28 29 30 30
26 26 27 27 26 27 27 27 28 30 33 36 37 39 39 38 36 34 34 35 36 37 37 38 39 39 39 39 38 37 37 36 35 35 35 34 33 33 34 35 35 36 37 37 36 35 35 35 35 35 35 35
26 27 28 29 29 30 31 31 33 36 38 38 39 39 39 38 38 37 37 38 39 40 41 42 42 42 42 41 40 40 38 37 38 39 39 39 39 40 41 42 41 43 43 41 40 42 41 39 38 38 37 36

ECMWFFLT2_500_rhum_123.txt.gz
RH
99 98 97 96 97 98 97 96 96 98 99 99 100 99 97 98 99 100 100 99 100 100 100 99 97 96 96 96 95 94 93 91 90 88 85 84 84 84 85 86 85 85 84 82 80 78 76 75 73 73 72 72
92 89 90 93 94 94 92 89 90 93 95 95 95 95 93 92 95 97 97 96 95 95 95 94 93 92 92 92 91 90 88 86 83 79 76 74 75 77 80 83 83 83 82 80 77 74 72 72 72 72 72 72
89 84 84 87 87 88 92 94 94 96 98 94 89 90 91 91 93 95 95 93 92 92 91 90 90 90 88 89 88 87 85 83 79 75 72 71 72 73 75 78 79 79 78 76 73 71 69 69 70 70 70 71
92 91 91 90 87 85 88 93 97 100 101 96 92 93 95 95 96 97 95 91 91 91 89 88 89 88 86 85 85 84 82 80 78 75 73 73 72 71 71 72 72 73 73 72 71 70 69 68 68 68 67 66
90 93 96 97 96 94 93 92 95 97 97 96 95 97 97 96 96 97 95 91 90 88 85 83 82 81 79 75 75 77 78 77 77 76 75 74 73 71 70 70 69 70 71 71 70 69 68 66 65 63 61 58
83 87 91 94 95 96 97 97 95 93 92 93 92 92 93 94 93 93 92 90 88 84 81 80 79 78 78 74 73 75 77 77 78 79 77 74 74 73 71 70 69 69 69 69 67 65 62 60 57 55 53 50
81 83 85 87 88 90 92 93 91 90 89 88 87 87 89 94 94 93 93 91 89 86 83 83 84 84 84 83 80 80 82 82 82 82 79 77 75 73 70 68 66 64 63 60 58 55 52 50 49 47 46 45
88 86 85 84 85 88 91 90 90 93 93 90 89 90 91 95 98 98 98 98 97 93 89 87 87 87 86 85 82 81 82 82 82 79 76 73 70 66 62 59 56 54 52 51 50 48 47 46 46 45 45 44
91 89 87 86 86 88 92 92 92 95 98 97 97 97 97 99 100 100 100 98 97 93 89 87 87 87 86 84 82 80 79 78 76 73 68 65 62 58 55 53 52 51 51 51 51 50 49 48 47 46 45 44
90 87 85 86 88 90 93 93 92 92 94 95 94 95 97 99 99 97 96 94 91 88 86 86 87 87 85 83 81 79 76 73 70 67 63 60 58 57 56 56 55 55 55 55 54 53 51 50 48 45 44 42
93 89 84 84 89 92 94 92 89 89 88 88 88 89 92 95 95 93 92 90 88 86 85 85 85 83 81 78 76 74 71 69 67 65 64 63 62 61 61 60 59 59 57 56 54 52 50 48 46 44 42 40
97 94 89 86 91 96 97 94 91 89 87 87 88 89 89 91 90 89 88 87 87 86 86 85 83 81 79 78 76 75 74 73 72 70 69 67 65 63 61 59 58 56 54 53 51 49 47 45 43 41 40 38
99 99 97 95 96 99 99 98 96 92 90 90 90 90 90 91 90 89 89 88 88 87 87 85 84 83 82 81 80 79 78 76 74 72 70 67 64 62 59 57 55 53 52 50 48 46 43 40 38 36 34 32
100 100 100 99 100 100 100 100 99 97 96 96 96 94 93 92 91 91 91 90 90 89 87 85 84 83 83 83 81 80 78 76 74 71 69 67 65 63 60 58 54 51 48 45 42 39 36 33 30 28 25 23
100 100 100 100 100 100 100 100 99 99 99 99 98 97 94 93 94 93 93 93 93 92 89 88 86 85 85 84 83 81 78 76 74 72 70 67 63 60 57 53 48 44 39 35 32 29 25 22 20 17 15 13
100 100 99 100 100 100 100 100 100 100 100 101 100 98 98 98 98 97 97 96 96 95 93 91 89 88 87 84 82 79 75 71 67 63 59 56 52 49 44 40 36 32 28 23 20 17 14 12 10 9 7 6
100 101 102 101 101 101 100 99 99 99 99 101 100 99 100 100 100 99 99 98 97 95 93 91 89 86 82 77 73 67 62 56 50 45 39 36 34 31 27 23 20 18 14 11 9 7 6 5 5 4 3 3
78 85 90 94 97 99 99 99 99 100 100 100 101 101 101 100 99 98 97 94 92 88 85 81 76 71 65 60 55 49 42 36 31 27 23 21 19 17 14 11 9 7 6 5 4 3 3 3 3 2 2 2
39 45 52 58 63 68 72 76 81 85 89 91 93 94 93 91 89 87 83 79 74 68 62 56 50 45 40 34 28 24 20 17 15 14 13 12 10 8 7 5 4 4 3 3 3 3 3 3 3 3 3 3
12 15 18 22 26 29 32 36 40 44 49 54 58 60 60 60 59 57 54 50 45 41 36 31 27 23 19 13 9 7 6 6 6 6 6 6 5 4 4 3 3 3 3 3 3 3 3 3 3 3 4 4
4 4 5 6 8 10 12 13 14 15 17 19 21 22 24 24 25 24 23 21 20 18 16 14 12 10 8 6 4 4 4 4 4 4 4 4 4 3 3 3 4 4 4 4 4 4 4 4 4 5 5 5
6 5 5 4 4 4 4 5 5 6 6 6 6 7 7 8 8 8 8 8 8 7 7 6 6 6 5 5 5 5 5 5 5 5 5 5 4 4 5 5 5 6 6 6 6 6 6 6 7 7 7 7
9 8 7 6 6 6 5 5 5 5 5 5 5 5 5 5 5 5 5 6 6 6 6 6 6 6 6 6 7 7 7 7 7 7 7 6 6 6 7 7 8 9 9 9 8 9 9 10 10 10 9 9
12 11 11 10 9 9 9 9 8 7 7 6 6 6 6 6 6 6 6 6 6 7 7 7 7 8 8 8 8 9 9 9 10 9 9 9 9 9 10 11 12 13 13 12 12 13 13 12 12 11 11 12
15 14 14 14 14 14 13 12 12 11 11 10 10 9 9 9 8 8 8 8 9 9 9 10 10 10 11 11 12 12 13 13 13 12 12 12 11 12 14 15 16 16 16 16 16 15 14 14 14 15 17 18
17 16 17 16 16 16 15 15 15 14 14 14 14 13 13 13 13 13 13 13 13 13 14 14 14 15 15 16 16 16 16 16 15 15 14 14 14 16 17 18 19 20 20 20 19 17 18 19 20 21 22 22
21 21 20 19 18 17 16 15 15 16 16 16 15 15 16 16 16 16 16 16 16 17 17 18 18 18 18 18 18 18 18 18 17 17 16 16 17 19 21 23 26 27 26 25 24 23 23 24 24 23 24 25
25 26 25 24 23 22 21 20 20 19 18 18 18 18 19 19 19 19 18 19 19 20 20 21 21 21 20 20 20 20 20 20 19 19 20 21 23 27 30 33 33 32 30 28 27 26 25 25 25 25 28 29
27 27 27 26 26 25 25 26 26 27 26 26 25 24 23 22 21 21 21 22 22 22 23 23 22 22 22 22 22 23 23 24 26 27 29 31 33 35 35 35 34 32 30 30 31 28 27 28 28 29 30 30
27 27 27 27 27 26 26 26 27 29 33 34 32 30 28 27 26 25 25 25 25 25 25 25 26 27 27 28 29 31 32 34 35 36 37 38 37 36 36 35 34 35 37 36 34 31 30 30 30 31 32 32
28 29 29 30 30 30 29 27 27 29 33 36 36 35 33 32 31 30 30 30 30 31 32 33 34 35 36 38 39 40 40 40 41 42 41 40 39 39 39 37 37 39 41 38 36 35 35 35 35 36 38 39

ECMWFFLT2_500_rhum_126.txt.gz
RH
100 100 99 100 100 100 100 100 100 100 100 100 99 100 100 100 100 100 100 100 99 98 100 101 101 101 101 100 100 100 100 101 101 100 100 99 98 97 97 97 97 95 93 92 90 89 87 86 85 84 82 81
100 100 100 100 101 101 100 100 101 100 100 100 100 100 100 101 100 100 100 99 97 96 98 100 101 101 101 100 100 100 100 100 100 100 100 100 100 98 98 98 97 95 92 90 88 88 87 87 86 86 84 82
100 100 100 101 101 101 100 100 100 100 101 100 101 100 100 100 100 100 100 100 100 99 100 100 101 101 101 101 100 100 100 100 100 100 101 100 101 100 99 98 95 92 89 85 83 82 82 83 84 84 84 82
99 99 100 102 100 101 101 100 100 100 100 99 99 100 100 100 100 100 99 99 98 98 100 100 100 100 100 101 100 101 100 101 101 101 100 100 99 99 98 96 92 88 83 79 77 76 77 79 81 81 81 80
94 92 95 100 99 98 99 100 100 100 99 97 97 98 100 100 100 100 100 99 98 97 98 99 100 100 101 101 101 101 100 100 100 100 99 98 96 96 95 93 90 86 81 77 75 75 75 75 76 76 77 76
90 88 88 94 94 92 94 99 101 101 100 100 99 99 99 100 100 100 100 101 100 99 98 99 100 99 99 100 101 100 98 97 97 99 99 97 95 93 93 91 89 86 82 79 77 75 74 73 72 72 72 72
86 89 88 91 92 88 89 95 100 100 100 101 101 100 100 100 100 100 100 100 101 101 100 99 99 98 97 98 100 98 95 93 92 93 94 92 90 89 88 88 88 86 83 82 79 77 75 74 72 71 70 70
82 85 86 89 94 95 93 92 95 97 99 100 100 100 100 101 101 100 100 100 100 100 100 100 100 100 97 96 98 97 94 92 90 88 87 86 85 85 85 86 87 86 86 86 82 79 77 75 72 70 69 68
85 84 83 84 89 94 98 97 94 91 92 94 94 95 98 100 101 101 100 100 101 100 99 100 101 101 99 97 96 96 95 93 93 91 91 90 89 88 88 88 88 87 87 86 82 79 76 73 69 66 63 61
93 91 89 86 84 84 89 97 96 90 88 88 87 89 93 96 99 101 101 101 100 99 99 100 100 101 100 99 99 100 97 94 93 92 92 91 89 88 86 85 84 83 83 81 78 74 70 66 63 60 56 54
98 98 94 85 81 78 79 85 89 89 87 85 85 86 90 92 96 99 100 101 100 99 99 100 100 100 101 100 100 100 97 93 90 89 88 87 86 85 83 82 80 78 77 75 71 66 63 61 58 56 54 53
98 98 95 85 82 83 82 79 81 84 84 84 86 88 91 93 95 98 100 101 100 100 100 100 100 100 99 98 97 96 93 90 87 86 86 87 86 84 82 80 78 75 72 69 66 62 60 60 59 58 57 57
98 98 98 96 94 95 90 82 82 84 83 85 88 92 95 96 98 100 101 101 101 101 100 100 99 98 97 95 94 92 91 88 86 86 86 85 83 81 79 77 74 72 70 68 66 65 64 63 63 62 61 60
100 100 100 100 100 100 96 90 90 91 90 90 91 92 95 97 99 101 101 101 101 100 99 97 95 95 94 92 92 90 89 88 87 87 86 85 83 81 80 78 77 76 75 74 72 71 69 67 66 63 62 59
100 100 100 100 100 100 99 98 98 98 97 98 98 97 98 98 100 101 101 101 100 99 97 95 94 93 92 92 91 90 90 89 89 89 88 87 85 84 84 83 82 81 79 77 75 73 71 69 66 64 62 59
100 101 100 100 100 100 100 101 101 100 100 100 101 101 100 100 101 101 101 101 101 99 98 98 97 95 94 93 92 91 91 90 90 90 89 88 87 86 86 85 83 81 79 77 75 74 71 69 66 63 59 56
87 96 100 101 101 100 100 100 100 101 100 100 101 101 101 101 101 101 101 101 101 101 100 100 100 98 97 96 94 94 94 93 94 93 93 92 91 90 88 87 85 82 79 76 73 70 67 63 58 54 50 46
54 69 82 90 95 98 100 101 101 101 100 100 100 100 100 100 100 100 100 100 101 101 101 100 101 101 100 100 99 98 98 97 96 96 96 94 92 90 87 84 80 75 71 66 62 58 53 49 44 40 36 32
19 29 40 50 61 72 81 88 94 97 99 100 101 101 101 101 101 101 100 101 101 101 101 101 101 101 101 100 101 100 99 98 96 95 93 91 87 82 76 71 67 62 57 50 44 40 36 32 28 24 21 18
5 7 10 14 21 28 37 47 58 67 75 81 85 88 90 93 94 95 96 97 97 96 97 97 98 98 98 97 96 95 92 88 84 80 75 71 66 60 55 51 47 43 38 32 27 23 20 16 14 12 10 9
5 5 5 5 5 7 9 13 19 26 33 39 45 49 53 57 60 64 67 68 69 69 68 70 72 73 75 75 74 72 68 62 57 52 47 43 40 36 32 29 26 22 18 14 11 10 9 7 7 6 5 5
8 7 7 6 6 5 5 5 5 6 8 10 13 16 19 21 24 28 31 32 33 33 32 34 34 36 37 37 37 36 34 32 30 28 26 23 22 21 18 16 13 10 7 5 4 5 4 4 4 4 4 4
11 10 9 9 9 8 7 7 7 6 5 5 4 5 5 6 8 9 10 11 12 12 13 13 13 13 13 14 13 13 14 14 15 15 14 13 13 13 11 10 8 6 5 4 4 4 4 5 4 4 5 5
13 12 12 12 12 11 11 11 10 9 8 7 6 6 5 5 5 5 5 5 5 6 6 6 6 6 6 7 7 7 8 9 9 9 10 10 10 9 9 7 7 6 6 6 5 6 6 6 6 6 6 6
14 13 13 14 15 15 15 14 13 12 11 10 10 9 8 8 7 7 6 6 6 6 6 6 6 6 7 7 7 7 7 7 8 8 8 9 8 8 8 7 7 7 7 7 7 8 8 8 8 8 9 9
18 17 16 16 16 16 16 16 15 15 14 14 14 13 12 11 11 11 10 10 10 10 9 9 9 9 9 9 9 9 9 9 9 9 9 9 9 9 9 9 9 9 9 9 10 10 11 11 11 12 13 14
17 19 20 20 19 18 17 16 16 16 16 15 15 15 15 15 15 15 15 14 14 14 14 13 13 13 12 12 12 12 12 12 12 12 12 12 12 11 11 11 11 11 11 12 12 13 13 14 15 16 17 18
17 18 19 20 20 20 20 19 19 19 19 18 18 18 18 18 18 18 17 17 17 16 16 16 16 15 15 15 15 15 15 15 15 15 15 15 15 15 14 14 14 14 14 14 15 16 18 19 20 20 21 23
23 20 19 18 18 19 20 21 24 25 25 25 25 25 25 23 22 21 20 19 18 18 17 17 17 17 17 17 17 17 16 16 17 17 17 18 18 17 17 17 17 16 17 17 19 20 22 23 24 25 27 31
35 30 26 23 20 19 19 20 22 25 28 29 30 31 30 29 28 27 25 23 22 21 20 19 19 19 19 18 18 18 17 17 18 18 19 19 19 19 19 19 19 19 19 21 23 25 28 30 32 32 34 38
48 43 38 33 28 25 22 21 20 22 24 26 28 29 29 30 30 30 30 30 29 27 25 24 23 22 21 21 20 20 19 19 19 20 21 21 21 21 21 21 21 22 24 26 29 33 36 38 39 38 38 39

ECMWFFLT2_500_rhum_129.txt.gz
RH
98 100 100 100 99 100 100 99 99 99 98 97 99 100 100 99 100 100 99 100 100 99 100 100 99 94 92 95 97 98 98 99 99 100 100 100 100 101 101 100 100 100 100 100 100 100 98 95 94 94 93 92
98 98 98 99 100 100 100 100 100 100 100 99 101 101 100 100 100 100 100 101 100 99 99 100 100 97 96 98 98 97 96 97 98 100 100 100 100 100 101 101 100 100 100 100 100 100 99 97 97 97 96 95
98 98 97 99 100 99 99 100 100 100 100 100 100 98 96 98 99 99 99 100 99 99 99 99 101 100 100 100 99 100 99 99 99 100 100 100 100 100 100 101 100 100 100 100 100 101 99 98 98 98 97 95
100 99 97 99 100 99 99 100 100 99 99 100 100 97 95 98 100 99 99 100 100 100 100 99 100 100 100 99 99 99 99 100 100 99 100 100 101 101 100 101 101 100 100 100 100 101 100 98 98 98 96 95
99 101 100 100 100 100 100 100 100 99 100 100 100 99 98 99 99 100 100 100 100 99 100 100 99 100 99 99 100 99 97 98 98 98 99 100 100 100 100 100 100 100 100 100 100 101 101 99 99 98 96 95
92 96 99 101 100 100 100 99 99 99 100 100 100 101 100 99 99 99 100 99 100 100 100 100 100 100 100 100 100 100 99 98 98 99 99 100 100 100 100 100 100 100 100 100 100 100 101 101 100 97 94 90
93 91 93 95 93 95 99 99 97 98 99 100 100 101 100 99 100 99 100 100 99 99 99 100 101 100 100 100 100 100 100 100 100 100 100 100 100 100 100 100 100 100 100 100 100 100 100 101 100 96 92 88
99 96 93 92 85 84 94 98 97 98 99 99 99 99 100 100 100 100 100 100 100 100 100 99 100 100 100 100 100 100 100 100 100 100 100 100 100 100 100 100 101 101 101 101 100 100 100 100 99 95 92 88
100 99 98 99 93 86 89 92 97 100 98 98 100 99 99 99 99 100 100 100 100 100 100 100 100 100 100 100 100 100 100 100 100 100 100 100 100 99 100 100 100 101 101 101 100 100 99 98 97 95 93 89
100 100 99 100 100 98 94 90 92 99 100 97 99 101 100 100 98 97 98 100 101 100 100 99 100 100 100 100 100 100 100 100 99 99 99 99 99 98 99 99 99 99 99 99 98 97 96 95 94 92 91 89
100 100 100 99 100 100 100 96 88 90 97 98 98 98 97 99 100 98 97 99 99 99 100 100 100 100 100 99 100 100 100 100 99 98 99 98 98 98 98 98 98 98 97 97 97 96 95 94 93 91 90 88
99 99 99 100 100 99 99 99 91 90 96 98 99 97 92 91 96 98 97 97 96 95 97 100 100 98 100 100 100 100 100 100 99 99 100 99 98 98 99 99 99 98 97 96 96 95 94 92 90 87 85 83
100 100 100 99 99 100 101 99 98 99 98 96 97 97 91 88 90 92 94 96 95 95 96 99 98 97 99 101 100 99 100 100 100 100 100 100 100 100 100 100 98 96 95 93 92 91 90 87 85 82 80 78
100 100 100 101 100 100 100 99 100 101 98 97 98 98 93 89 88 87 90 95 96 96 98 100 98 98 99 100 100 99 100 100 100 100 100 100 100 100 99 98 95 92 92 91 89 89 88 87 84 82 79 77
102 102 100 99 100 100 101 99 99 100 98 98 100 99 95 91 90 90 90 93 96 98 99 100 100 99 100 100 100 100 100 100 100 100 99 99 98 97 96 95 93 92 91 90 89 88 87 85 83 80 78 76
85 92 98 101 101 99 99 100 100 100 98 98 99 100 100 97 95 96 97 98 99 100 100 100 100 100 100 100 100 99 99 99 98 98 96 96 95 94 94 93 92 91 91 90 89 89 87 85 83 81 80 79
51 66 74 81 91 96 98 97 98 100 99 100 99 99 99 100 100 99 99 100 100 100 101 100 100 100 100 100 99 98 98 97 96 95 94 94 93 93 93 93 92 91 91 91 90 90 89 87 85 85 84 83
29 46 49 56 65 70 78 84 91 97 98 99 100 101 100 98 99 101 100 100 100 100 100 100 99 100 100 100 99 99 98 97 96 96 96 95 95 95 94 94 93 92 92 91 91 91 90 89 87 87 86 85
12 22 38 63 57 35 40 59 73 82 88 91 92 96 100 101 98 99 100 99 100 100 99 100 100 100 101 100 99 99 99 98 98 98 98 98 98 99 98 97 97 95 96 95 95 94 93 92 90 89 87 86
6 3 15 47 57 52 62 78 86 90 91 84 83 89 89 94 100 99 101 100 100 100 100 100 100 100 100 100 100 99 99 99 98 99 99 100 100 100 100 100 101 100 100 100 98 96 94 93 91 88 85 82
9 7 4 12 25 38 50 64 73 77 75 58 60 78 69 62 74 79 85 91 93 95 96 99 99 99 100 100 100 99 100 99 99 99 100 100 100 100 101 100 100 100 100 99 96 93 90 87 84 80 75 71
9 9 9 7 7 8 8 18 26 28 44 50 44 49 43 32 36 42 50 59 66 74 79 85 88 90 93 94 95 96 96 96 96 97 98 98 98 97 97 95 94 93 92 89 85 81 77 73 69 64 59 53
13 11 10 10 9 9 7 7 9 4 20 43 31 16 17 15 10 11 20 26 32 40 48 54 60 63 66 68 71 73 75 76 77 78 78 78 78 78 78 77 75 74 72 69 65 62 58 55 51 46 39 33
16 16 15 14 11 11 10 8 11 8 6 14 10 6 13 24 26 14 6 9 11 14 18 22 26 29 30 33 34 36 37 39 41 41 42 42 42 43 43 43 43 43 42 41 40 39 37 35 32 28 23 19
16 17 16 17 16 14 14 12 11 12 11 9 8 12 14 26 42 27 6 6 6 5 6 6 8 8 9 10 11 11 12 14 15 16 17 17 17 17 18 18 19 19 20 20 21 20 19 19 17 15 13 11
19 19 17 17 17 17 17 17 15 13 13 12 13 18 16 20 32 22 8 9 8 6 7 5 6 6 6 6 6 7 7 8 8 9 9 9 9 9 9 9 10 11 11 12 12 12 11 11 10 9 8 7
27 24 22 20 19 19 18 18 19 18 16 16 15 16 17 23 31 22 12 12 12 11 11 10 9 9 9 9 9 9 9 8 9 8 8 8 8 7 7 7 7 7 8 8 8 8 8 8 7 7 7 6
34 32 29 26 23 22 22 20 19 20 18 18 18 17 16 18 21 17 12 17 20 15 13 14 13 13 13 12 12 12 11 11 11 11 11 10 10 9 9 8 8 8 7 7 7 7 7 7 7 7 7 7
41 40 37 35 33 30 28 27 25 24 22 20 20 22 22 20 18 17 16 19 21 17 15 16 14 15 16 15 15 14 14 14 14 14 14 13 12 12 11 11 10 10 9 9 9 8 8 8 8 8 8 9
48 47 46 44 43 41 38 36 33 30 28 27 25 24 25 25 23 22 20 19 21 19 18 17 16 16 16 16 16 15 15 16 15 16 15 15 15 14 14 13 12 12 12 11 11 11 10 10 10 10 11 11
53 52 52 52 51 50 49 47 45 42 37 33 31 29 28 27 25 25 25 24 24 23 22 21 20 20 18 18 18 17 16 16 16 16 16 16 16 16 16 15 15 15 14 14 14 14 14 14 14 14 14 15

ECMWFFLT2_500_rhum_132.txt.gz
RH
76 69 83 92 91 97 100 100 100 100 100 100 97 89 85 90 93 95 93 88 94 98 98 100 100 97 94 97 98 94 96 98 97 95 93 92 89 87 87 88 87 87 87 86 86 86 86 85 84 84 82 81
73 70 77 88 89 90 96 99 100 101 101 100 99 94 90 92 93 95 96 92 95 98 96 97 98 99 97 98 97 95 97 100 100 98 96 94 93 93 91 90 90 91 92 93 93 93 92 91 90 89 89 87
85 80 75 81 86 85 88 95 97 97 100 100 100 100 97 96 96 96 98 99 98 98 98 98 99 98 98 100 99 98 99 100 101 98 96 95 95 94 91 90 91 93 96 98 98 98 97 96 95 95 94 91
94 90 79 71 76 87 89 89 91 91 93 97 97 99 98 98 100 98 98 100 98 97 99 98 99 98 98 100 99 100 100 100 101 99 97 95 95 94 92 90 90 94 98 100 101 101 101 100 100 100 98 96
96 93 89 74 71 88 94 89 90 91 90 92 93 95 97 97 98 98 98 99 98 97 97 96 95 93 93 97 98 100 100 100 101 100 99 97 97 96 95 93 91 93 97 99 100 101 101 101 101 101 99 98
97 93 95 87 81 89 95 92 92 96 95 94 95 96 99 100 99 98 99 100 99 98 97 95 93 91 91 95 98 100 100 100 100 99 100 100 99 96 94 94 93 94 97 98 99 99 100 100 100 100 99 96
97 95 96 95 90 88 88 89 89 90 90 91 94 98 98 98 99 99 100 100 101 100 98 95 92 95 97 98 99 100 100 100 101 100 100 101 100 98 96 97 96 97 97 97 97 98 101 101 100 100 99 96
98 98 98 97 93 88 87 85 81 77 76 76 80 86 90 92 94 98 99 100 101 100 100 97 95 99 101 100 100 100 100 100 100 100 100 100 100 99 100 100 99 99 98 95 93 94 96 98 99 100 100 96
99 100 100 99 96 94 95 93 85 79 76 75 72 72 78 84 89 95 99 100 100 100 100 100 99 100 100 100 100 100 100 100 100 100 100 100 100 100 100 100 101 100 99 98 96 95 95 95 97 100 100 99
99 100 100 98 98 97 98 100 98 94 92 91 86 75 69 72 79 88 95 99 100 100 100 100 100 100 100 100 100 100 100 100 99 100 100 100 100 100 100 100 100 100 100 100 100 100 99 98 99 100 100 100
100 101 100 98 100 101 98 99 100 100 100 98 90 76 66 64 70 78 86 93 98 100 100 100 100 100 100 100 100 100 100 100 100 99 100 100 100 100 100 100 100 100 100 100 100 100 101 100 101 100 100 100
100 100 100 99 98 99 98 100 102 100 101 98 85 70 65 66 71 79 83 86 91 96 98 98 99 100 101 100 100 101 100 100 100 100 100 100 100 100 100 100 100 100 100 100 100 100 101 101 100 100 100 100
100 99 99 100 100 100 100 100 100 99 100 101 94 81 74 75 81 87 89 91 95 97 97 95 95 95 97 100 100 101 101 101 101 100 100 100 100 100 100 100 100 100 100 100 100 101 101 101 101 101 100 100
93 99 99 99 99 98 99 101 101 101 100 100 101 97 90 86 89 95 96 98 100 100 99 95 94 93 91 94 96 99 99 98 100 100 100 100 100 101 101 101 99 96 95 96 96 98 100 101 101 100 100 99
66 83 93 100 102 101 100 99 99 99 100 100 100 101 100 97 96 99 100 100 100 100 101 98 97 97 94 92 93 97 98 95 96 97 95 96 98 99 99 99 97 94 94 95 93 94 97 99 99 99 98 97
30 44 61 77 88 96 100 101 102 101 100 100 99 99 100 100 98 99 101 101 101 100 100 99 99 100 99 97 93 95 99 95 93 95 94 93 94 95 94 94 94 96 98 99 97 96 97 99 100 98 96 95
10 14 26 48 71 86 87 87 92 93 95 98 100 101 100 100 100 100 100 100 101 101 100 100 99 100 101 100 97 97 100 97 93 95 96 96 96 96 96 95 94 97 99 99 99 98 97 98 98 97 95 94
6 5 9 29 60 70 53 47 59 67 72 79 84 89 93 96 98 99 100 100 100 99 99 100 100 99 100 100 99 99 101 101 97 97 98 98 99 99 99 98 96 96 96 96 95 93 93 93 93 94 94 93
7 7 5 9 23 28 24 43 67 62 51 60 72 74 72 72 78 89 96 98 100 100 100 100 100 100 100 99 100 100 100 100 99 100 101 100 99 99 98 96 95 94 94 93 91 90 90 89 90 91 91 91
10 10 9 7 7 6 13 38 54 47 46 65 81 82 75 70 79 93 97 97 95 95 98 100 100 101 101 100 100 101 100 99 99 100 102 101 99 99 98 96 95 94 94 94 93 93 92 92 92 90 90 90
13 13 12 11 11 8 10 15 18 30 55 78 88 92 93 92 97 103 100 100 96 89 89 93 97 98 99 101 101 101 100 99 97 98 101 100 98 98 95 95 96 94 96 97 96 96 95 96 95 92 92 91
12 13 14 14 14 12 12 11 8 16 31 47 63 78 93 100 100 100 100 101 98 88 73 66 72 78 83 90 95 99 101 102 100 99 101 99 96 96 93 93 96 93 94 98 98 98 97 97 94 90 91 92
13 12 13 14 14 13 14 15 13 13 10 13 22 32 56 79 86 92 101 99 92 84 69 53 48 49 54 59 66 76 83 90 97 99 101 100 98 98 97 98 99 96 97 100 102 100 98 97 94 91 93 94
19 17 16 14 13 12 13 14 14 16 15 14 12 8 21 44 56 63 77 88 91 88 78 58 37 29 31 32 32 40 48 55 64 72 79 83 86 90 92 93 94 94 95 96 98 98 97 96 95 94 94 94
24 22 22 20 19 17 15 15 14 14 15 16 17 14 13 21 26 23 28 49 73 88 84 61 44 43 38 23 14 17 23 27 30 34 40 46 50 56 61 65 67 71 74 75 76 77 77 77 78 79 80 80
32 30 29 27 26 25 23 22 20 18 17 17 17 17 16 16 15 13 10 17 38 69 87 71 53 54 49 30 19 18 15 14 15 16 18 21 23 26 29 32 35 38 41 43 43 43 44 46 47 49 50 50
39 38 37 37 35 33 32 30 27 25 22 21 19 19 20 19 18 17 16 14 15 33 70 89 72 55 49 38 29 26 18 10 10 11 11 13 15 16 17 18 19 21 22 22 22 23 24 25 24 24 25 24
44 43 43 43 43 42 40 37 35 33 31 27 25 23 22 22 23 22 20 21 18 16 40 73 73 52 42 37 34 36 28 15 11 11 10 10 11 12 13 14 15 15 16 17 17 18 18 17 16 16 16 14
48 48 47 47 47 48 48 46 43 40 38 35 32 29 27 26 25 26 25 23 23 21 22 32 40 36 29 28 33 34 25 16 14 13 12 12 11 11 11 11 12 12 13 13 14 14 14 14 15 14 13 12
50 50 51 50 50 50 51 51 50 47 46 43 41 36 33 31 29 28 29 28 26 27 24 21 24 26 24 23 25 28 23 17 18 18 16 15 13 13 13 12 12 11 11 11 11 11 12 12 12 12 12 12
52 53 52 52 53 53 53 53 52 52 51 49 48 46 42 39 37 34 32 32 31 29 29 28 26 24 24 24 25 31 31 21 19 21 19 18 17 15 15 15 14 14 13 13 12 12 11 11 11 11 11 11

ECMWFFLT2_500_rhum_135.txt.gz
RH
44 49 45 40 53 70 86 91 91 96 98 100 100 101 99 99 100 100 99 91 84 87 94 99 95 88 88 94 98 98 98 97 96 92 87 83 80 84 85 81 76 73 71 68 68 67 65 63 61 60 58 58
51 44 50 47 45 56 71 84 94 98 99 101 99 98 98 100 101 100 101 95 88 87 90 94 95 91 88 90 94 98 100 98 100 100 95 94 89 86 88 85 81 77 74 72 72 70 68 65 64 63 61 62
75 62 61 64 58 51 55 68 79 85 91 98 97 93 92 94 99 99 100 100 95 91 88 88 88 87 87 89 90 93 98 99 99 101 100 100 99 96 95 91 87 84 78 75 75 74 72 70 69 67 65 66
85 87 79 82 80 64 61 70 73 80 86 89 92 89 86 88 93 95 97 99 100 97 95 92 88 85 86 89 89 88 93 99 100 100 100 99 100 100 98 97 94 89 84 79 78 78 76 74 73 70 70 70
78 93 89 91 94 82 76 78 79 89 93 90 90 86 84 88 90 94 97 98 99 99 99 98 92 87 88 90 89 88 90 95 99 100 100 99 100 96 89 94 97 92 89 83 83 84 81 78 74 73 74 76
86 93 93 94 98 94 88 86 84 90 97 98 96 91 89 91 94 99 99 97 98 97 97 98 95 90 90 95 96 94 92 93 97 99 99 99 100 97 91 95 99 97 94 89 87 87 84 81 76 75 77 81
96 100 98 96 99 99 96 94 91 92 99 101 101 98 94 93 94 97 97 96 96 95 94 94 96 98 97 99 99 100 97 96 98 100 100 100 99 99 98 99 100 100 99 94 90 87 84 82 79 76 78 84
90 97 101 99 99 101 100 100 96 95 101 102 99 96 94 92 90 89 90 90 90 90 90 89 91 96 100 101 100 100 100 99 99 98 98 98 96 97 99 100 100 100 100 98 96 92 86 84 82 79 81 86
87 93 100 100 99 99 99 101 99 95 96 97 93 88 84 83 82 79 79 80 81 84 85 85 88 91 94 97 97 97 100 100 98 96 96 97 94 95 99 99 100 100 100 99 99 97 92 89 86 83 85 90
83 92 97 98 100 101 99 97 99 98 95 97 94 86 80 80 82 77 68 67 73 81 82 80 83 88 91 92 93 94 96 98 97 95 95 97 96 95 98 99 99 99 99 99 99 100 98 96 93 90 92 96
57 72 83 91 96 99 100 96 96 99 99 101 100 94 92 94 96 90 77 67 68 77 84 85 84 86 90 92 96 98 97 96 96 96 95 96 96 96 98 100 100 99 99 100 100 100 100 99 98 98 98 99
35 45 60 78 92 98 100 96 94 99 98 98 101 99 100 100 100 100 95 83 72 70 80 89 91 92 95 95 97 100 101 100 98 98 98 97 96 95 96 98 100 100 100 100 100 100 100 100 100 100 100 100
23 29 37 52 73 92 100 99 96 98 97 96 99 99 100 101 100 101 98 91 80 73 80 88 93 98 100 98 99 100 100 101 100 100 100 99 98 97 95 96 97 99 100 100 100 100 100 100 100 100 100 100
11 16 22 30 45 66 85 97 100 99 98 97 100 100 99 100 100 100 98 94 86 78 81 88 94 100 101 100 100 100 100 99 100 100 100 99 99 100 99 98 98 98 100 100 100 100 100 100 100 100 100 100
6 6 10 17 25 37 53 75 93 100 102 100 99 99 100 100 100 100 100 98 92 83 78 81 89 94 97 98 98 97 99 100 100 100 100 100 99 99 100 99 99 99 100 100 99 99 99 100 100 100 100 100
7 6 5 7 13 19 30 49 68 81 94 100 100 101 100 100 100 99 100 100 99 93 85 81 84 89 91 89 88 89 90 94 98 100 99 100 100 100 100 100 99 99 100 100 99 99 99 100 100 100 100 100
8 8 7 6 6 8 14 27 40 55 81 97 98 99 96 95 100 99 98 99 99 100 98 93 91 94 95 91 88 84 82 86 90 94 96 98 100 100 100 100 100 100 100 100 100 100 99 99 100 100 100 100
10 9 9 9 8 6 6 9 17 34 70 101 100 95 95 92 86 79 84 90 89 93 96 97 99 100 99 97 95 91 85 84 85 87 89 91 96 99 101 101 100 100 100 101 100 100 100 100 100 100 100 100
10 10 10 10 10 9 8 6 6 10 35 72 91 96 96 88 76 73 85 83 72 83 91 89 89 89 91 92 93 96 93 89 88 89 90 89 88 90 94 97 99 101 101 101 100 99 100 100 101 101 101 101
10 10 10 11 11 11 11 9 9 6 6 28 64 89 89 82 85 95 99 81 66 83 93 89 86 80 81 88 93 97 96 94 92 92 94 94 91 89 89 89 92 98 100 101 101 100 101 101 101 101 101 101
15 14 12 11 12 11 13 12 12 12 7 10 29 54 70 75 81 93 101 91 82 92 96 96 97 92 89 91 97 102 99 98 96 95 95 94 93 92 91 87 87 93 98 98 98 99 100 101 101 101 101 101
21 20 19 16 15 13 13 13 13 13 13 13 10 17 38 49 49 66 90 97 97 99 99 101 100 99 100 97 98 102 101 101 100 99 97 96 94 91 91 91 88 91 95 95 94 96 99 101 101 101 101 100
26 25 24 23 21 19 17 15 14 14 13 16 14 12 17 19 18 30 50 70 94 103 99 100 101 100 100 100 100 100 100 103 103 98 85 79 85 87 89 93 92 92 95 97 95 93 96 100 100 99 98 98
31 31 30 29 28 26 24 22 19 17 16 15 16 16 16 15 14 14 15 25 59 93 103 98 99 102 100 100 102 96 94 97 101 99 80 60 59 68 76 83 86 88 92 97 98 94 93 96 95 93 93 93
34 34 34 34 34 32 31 29 26 23 21 19 18 18 17 17 17 16 16 11 19 58 94 95 91 99 100 98 100 95 91 91 90 91 86 69 50 42 47 53 56 63 70 76 83 87 89 91 90 87 87 89
36 37 37 38 38 38 37 35 33 30 27 25 24 23 21 21 20 18 19 18 13 22 48 64 73 90 100 100 102 100 93 86 81 75 72 66 48 34 38 37 28 30 38 45 52 60 66 70 74 77 82 86
39 38 39 41 41 41 42 40 39 37 35 33 31 29 28 26 26 24 20 20 20 15 17 26 35 53 72 81 90 101 99 85 72 61 54 56 51 45 48 42 28 23 22 24 29 32 36 40 45 52 61 69
42 42 41 42 43 44 45 45 44 43 41 39 38 36 35 34 31 29 27 24 23 21 19 19 17 21 28 36 46 66 81 75 58 47 44 50 53 52 51 45 42 44 32 17 15 18 20 23 25 29 33 41
40 42 43 44 44 45 46 46 46 46 45 44 44 43 42 41 39 36 34 31 28 26 24 23 22 20 19 19 19 23 35 39 36 33 31 34 41 46 50 48 50 58 46 23 13 11 12 14 15 17 20 24
40 40 40 41 43 44 44 46 47 47 48 47 47 48 48 47 46 45 41 38 35 32 30 28 25 24 23 22 21 18 17 18 23 27 25 31 40 35 30 35 40 48 49 36 20 12 10 11 11 12 14 15
44 42 41 41 41 43 44 45 46 47 48 49 49 49 51 52 52 51 49 46 42 38 35 34 31 29 27 25 24 23 22 21 22 25 27 41 52 35 18 20 24 27 36 35 23 16 13 12 11 12 11 12

ECMWFFLT2_500_rhum_138.txt.gz
RH
49 71 88 86 89 89 86 87 85 92 94 88 89 90 92 92 97 99 96 100 95 92 97 98 99 100 101 100 100 99 96 94 93 95 96 94 88 86 85 80 77 67 61 65 73 82 84 83 76 64 54 49
56 68 89 90 86 87 89 85 74 71 74 76 77 82 93 92 95 101 98 101 99 95 96 96 96 98 99 100 100 100 101 100 94 93 97 99 92 87 93 95 92 86 77 69 72 83 86 84 79 68 58 53
65 63 77 80 76 81 82 78 74 73 72 75 78 84 93 94 96 100 99 100 98 95 97 98 98 98 99 98 99 98 99 99 97 95 94 97 96 89 95 101 99 98 95 87 84 86 88 89 85 74 64 58
84 76 79 78 78 87 89 85 85 86 85 85 86 83 79 79 83 86 89 92 92 91 94 97 100 99 99 99 99 97 96 95 95 96 93 93 96 93 92 98 100 100 100 98 93 89 90 93 90 82 75 66
92 90 87 80 78 89 97 95 91 88 87 91 94 91 80 72 73 76 78 81 85 87 88 93 100 100 99 100 100 100 98 94 92 94 94 92 94 94 91 92 96 100 100 98 93 86 86 91 92 88 85 78
81 93 93 90 86 91 96 96 97 94 91 95 98 99 92 84 83 83 83 84 87 88 87 92 99 101 100 100 100 100 101 96 91 90 90 89 90 93 93 92 91 93 95 96 95 89 88 93 94 91 87 85
57 78 88 98 99 98 95 90 94 95 94 97 97 99 98 91 90 92 91 91 93 94 93 95 99 101 101 101 100 99 100 97 91 87 89 89 87 86 87 89 88 88 89 89 89 89 96 100 97 95 90 88
31 55 75 87 94 98 98 92 94 95 94 96 96 99 101 95 96 97 96 95 96 97 95 94 96 99 101 101 100 100 99 99 97 95 96 97 94 89 86 86 88 90 91 89 85 83 92 100 100 100 97 92
15 34 55 71 88 99 99 94 96 98 94 97 98 98 101 99 98 95 94 99 99 95 91 90 92 93 96 98 98 100 100 99 100 100 99 99 99 98 96 94 95 96 96 97 95 89 90 97 100 100 99 98
7 15 29 47 69 84 92 93 93 98 98 99 101 101 101 97 97 95 94 99 100 95 89 86 86 85 86 89 91 95 100 100 99 100 99 99 99 99 100 100 99 100 99 99 101 99 96 98 100 100 100 100
4 7 12 22 42 59 75 86 86 92 99 100 98 98 99 95 97 100 99 99 99 97 93 90 89 83 79 79 83 86 92 98 100 101 100 99 100 99 99 100 99 100 101 100 100 100 100 101 100 100 100 100
4 5 5 9 25 41 50 62 71 79 88 96 99 99 100 99 100 100 99 100 100 100 99 98 98 95 88 81 80 82 84 90 97 100 100 101 100 100 99 100 100 100 100 100 101 100 99 100 100 100 100 100
6 5 6 4 9 18 22 33 56 70 72 79 91 99 100 98 100 100 99 99 98 100 101 99 99 101 99 91 85 86 86 87 91 93 97 99 97 96 95 93 95 98 99 100 100 100 98 97 99 100 100 100
8 6 6 6 4 7 9 14 35 55 64 71 79 90 99 101 101 100 98 100 99 99 100 99 99 100 101 99 95 94 94 90 88 88 93 99 98 95 92 89 88 91 95 98 100 100 99 97 96 97 98 99
9 9 7 7 6 5 6 6 13 25 40 53 56 65 80 90 98 102 99 98 99 100 100 100 100 100 99 99 98 95 94 92 89 89 91 95 97 96 94 91 89 88 90 94 99 100 100 99 96 95 96 98
8 9 9 8 8 7 6 5 6 7 15 30 45 64 75 79 89 98 98 96 97 100 100 100 100 100 99 98 98 95 91 90 90 89 89 90 91 92 92 91 90 90 90 93 97 99 99 100 100 99 99 98
11 10 9 9 9 9 8 7 6 5 11 21 35 56 69 80 91 95 95 94 97 101 100 100 101 100 101 99 98 98 97 95 94 94 91 90 90 90 89 89 90 91 92 94 97 99 99 99 100 100 101 100
18 15 12 11 10 10 10 9 9 6 8 9 13 31 50 70 90 95 96 97 98 102 101 99 101 100 96 93 93 94 97 99 99 100 98 97 97 96 93 91 93 95 95 94 95 99 100 99 99 99 100 100
23 21 18 16 13 12 10 10 11 10 10 7 7 23 36 51 73 78 82 95 99 100 101 100 101 101 96 92 90 85 87 92 94 96 97 97 98 98 97 95 97 98 99 98 97 98 99 99 99 99 100 99
26 25 23 21 18 15 13 12 12 12 12 11 8 10 14 27 53 65 70 88 101 100 99 101 100 100 100 100 94 82 80 83 86 88 90 92 93 92 92 92 93 94 97 98 99 100 100 100 99 99 100 99
28 27 26 24 23 20 18 15 13 13 12 13 13 11 11 11 31 64 79 84 94 100 99 100 103 101 98 102 99 89 86 86 86 85 86 90 93 93 92 90 88 87 88 89 91 95 98 99 100 100 100 100
29 30 29 27 27 24 23 21 18 17 14 14 14 13 17 12 21 57 78 72 71 89 102 99 99 101 98 101 102 97 97 98 94 87 84 87 93 97 95 91 91 88 86 86 88 91 92 94 98 99 100 100
28 29 31 30 30 28 27 26 23 22 19 19 17 14 16 15 19 32 41 38 33 57 96 106 101 101 99 99 101 100 100 101 97 93 92 92 95 100 95 88 88 91 91 93 94 94 94 93 94 95 95 95
28 29 31 31 32 31 31 30 28 28 26 24 22 20 18 15 16 16 16 19 13 22 60 88 94 95 97 99 101 99 98 100 99 97 99 100 101 101 96 90 87 91 94 93 90 88 89 94 96 96 93 94
28 29 30 32 33 33 33 33 32 31 31 30 28 26 25 21 19 17 15 16 16 14 22 37 45 53 67 81 96 104 99 98 100 99 99 100 102 101 99 98 95 96 94 85 80 77 75 78 85 91 93 96
32 32 31 31 33 35 36 35 35 35 34 35 34 32 31 29 26 24 21 17 18 18 16 18 16 19 27 35 62 89 97 100 99 98 102 101 100 100 100 101 100 99 94 87 84 80 71 62 63 70 78 84
36 35 35 34 34 35 36 37 38 38 38 38 38 38 36 35 33 31 29 25 22 20 19 20 18 19 19 13 24 41 61 93 105 97 98 101 101 101 99 100 101 100 99 97 91 82 72 63 56 48 48 56
57 50 43 39 36 36 36 38 40 40 41 41 41 41 41 40 39 37 35 33 31 27 23 23 21 21 21 19 19 14 20 59 94 102 101 100 100 100 100 100 101 100 100 101 97 88 75 62 50 36 42 56
55 61 60 54 46 41 38 37 40 41 42 44 44 45 44 44 45 43 41 40 38 36 32 29 26 24 22 21 21 20 14 22 48 74 89 98 98 97 101 101 100 102 102 100 97 90 74 59 49 43 55 67
20 34 49 58 57 52 45 40 39 40 41 44 45 46 47 47 47 46 45 44 43 43 41 38 34 31 29 27 23 23 22 17 19 27 42 65 74 75 91 103 96 88 91 95 90 79 66 56 50 50 61 63
5 8 17 31 45 52 53 49 44 41 40 42 44 46 47 48 49 49 48 48 47 46 45 44 43 41 37 35 32 28 26 24 22 19 18 29 37 39 65 100 103 86 80 76 68 66 63 55 44 42 58 61

ECMWFFLT2_500_rhum_141.txt.gz
RH
4 6 8 29 61 67 58 53 57 64 71 73 64 61 58 55 68 85 97 100 101 97 95 98 99 100 99 99 99 100 100 95 95 96 87 77 70 57 47 40 39 48 48 51 56 65 84 93 96 92 89 88
4 6 6 27 57 67 70 69 73 82 82 77 72 74 69 71 89 96 99 99 98 99 98 100 99 98 99 99 100 99 101 101 99 99 100 93 85 77 67 54 42 43 50 53 55 69 86 85 86 85 83 85
3 5 7 26 50 66 91 98 95 98 90 84 88 93 92 95 99 92 91 86 82 92 98 101 100 98 98 99 99 100 99 99 100 99 100 99 93 87 77 67 59 59 66 71 68 77 90 88 88 85 79 82
3 5 7 26 55 73 93 103 100 100 97 94 96 99 100 99 93 84 87 83 74 80 89 93 95 95 96 99 99 101 100 97 96 95 98 100 99 97 94 88 81 83 89 92 90 87 94 96 97 92 84 85
3 6 9 23 62 91 94 98 100 98 99 96 94 100 100 98 94 89 92 91 83 82 83 79 79 85 87 88 91 93 96 96 93 94 99 100 100 100 100 97 90 94 98 98 99 96 99 97 95 97 94 94
2 5 17 26 52 89 100 99 98 96 99 98 96 97 98 99 98 97 100 96 90 92 93 84 75 76 78 79 81 82 84 90 92 93 98 99 100 99 98 99 96 98 99 98 99 98 101 95 87 91 94 96
4 2 13 26 38 64 86 97 99 97 97 95 96 94 95 100 100 98 100 100 98 97 98 95 86 76 76 80 82 79 76 83 87 87 90 93 97 99 99 99 97 98 99 99 99 99 101 98 91 89 90 94
5 3 4 16 40 63 68 77 92 99 100 97 96 94 93 99 101 95 92 98 102 100 101 99 96 89 84 87 88 84 81 84 86 83 86 92 93 93 97 98 95 93 94 96 99 100 100 100 99 97 97 97
4 5 3 6 39 77 72 67 79 83 89 98 99 97 96 99 100 96 94 98 99 99 102 99 99 99 96 94 91 88 88 91 90 87 90 95 96 90 90 95 96 91 88 92 99 101 100 100 100 100 102 98
5 4 6 3 16 42 42 47 72 73 71 85 97 98 97 99 99 98 99 99 98 100 100 98 100 101 101 100 95 91 90 90 89 89 91 94 97 94 90 93 98 97 94 95 97 100 101 100 100 100 101 100
6 4 5 5 3 8 6 17 45 54 52 63 81 91 93 97 100 100 102 99 98 100 100 99 101 100 100 101 99 98 96 93 89 87 89 90 91 92 90 90 93 98 100 100 98 97 99 99 100 100 100 100
7 6 5 5 4 5 4 5 11 23 48 66 70 78 88 98 100 96 96 100 100 98 100 100 99 101 100 100 100 100 100 99 95 89 87 87 89 90 87 85 89 94 97 100 99 96 96 99 99 100 100 100
7 7 6 6 5 5 5 6 3 6 41 75 83 85 87 91 94 89 83 90 101 99 99 100 99 100 99 99 100 99 100 100 99 96 93 90 89 91 89 85 86 92 97 99 101 98 96 97 99 100 100 100
9 8 7 7 7 7 5 5 6 2 14 40 61 70 68 67 79 90 84 83 96 101 99 100 99 100 100 100 100 100 100 100 100 101 99 97 93 93 93 91 89 91 95 98 101 101 98 96 97 98 99 100
14 12 10 9 6 7 7 5 7 6 4 7 17 33 39 41 57 79 86 82 88 93 95 100 99 99 101 100 101 101 100 99 98 99 99 100 99 99 99 98 96 94 94 96 98 98 97 97 97 98 99 99
18 17 14 14 11 9 8 7 8 7 8 5 5 19 24 24 38 55 64 71 82 80 81 96 99 97 100 100 101 101 100 97 95 95 95 97 98 100 101 101 101 100 98 97 97 95 92 91 92 95 96 97
20 21 19 18 17 15 12 9 9 7 9 9 6 15 24 33 48 60 63 69 86 85 82 98 100 96 100 100 100 100 100 100 99 97 94 93 93 95 98 98 100 100 98 96 95 93 88 85 85 86 88 90
21 21 22 22 21 20 19 16 13 10 9 10 9 11 21 33 42 65 88 89 91 86 83 98 101 98 101 99 100 100 99 100 101 100 95 92 91 93 97 97 95 95 94 93 91 90 87 84 81 81 82 83
23 23 22 23 23 22 22 21 20 17 13 11 11 9 12 15 14 36 69 84 92 88 83 96 99 98 101 99 100 101 100 99 98 97 95 93 90 89 91 95 97 96 95 92 90 89 86 84 80 78 79 79
22 23 23 23 24 24 24 24 23 23 21 17 14 13 11 12 10 12 23 42 64 72 77 92 97 97 101 100 100 100 100 99 98 98 98 98 95 91 87 88 90 91 92 93 91 89 87 86 83 81 80 80
22 22 23 23 24 25 25 25 25 24 25 24 19 17 13 12 13 12 11 19 36 51 63 80 93 98 100 100 101 101 100 100 99 98 97 99 100 97 91 86 84 83 85 88 89 88 87 87 87 86 87 86
22 22 22 23 23 24 25 25 27 26 26 27 25 22 19 16 14 14 14 15 26 40 48 67 89 99 103 101 99 100 100 99 100 98 96 98 101 102 99 95 94 91 84 83 85 87 89 92 94 93 91 92
22 22 22 22 23 23 24 25 26 27 27 28 27 26 24 21 18 15 15 14 18 22 25 44 67 81 94 99 100 101 99 99 99 100 99 99 100 101 100 100 102 98 89 81 78 80 85 89 93 97 97 97
22 23 23 23 23 23 23 24 26 26 27 28 28 29 28 26 24 21 19 16 17 17 17 26 39 50 59 70 91 102 98 99 100 99 101 99 99 100 100 100 99 99 97 91 79 74 79 81 83 89 93 98
29 25 24 24 25 25 24 24 25 27 27 28 28 30 30 30 29 27 25 21 19 19 18 20 25 32 33 38 68 95 98 99 99 99 101 100 99 99 99 100 100 99 100 100 91 85 89 88 82 78 79 85
53 46 39 33 28 27 27 27 26 26 27 29 31 31 31 31 32 31 30 28 26 24 21 20 19 20 23 25 42 70 88 98 100 99 99 101 102 100 100 100 99 99 100 101 98 96 98 92 80 70 68 72
46 52 54 53 47 39 33 30 30 29 29 30 31 33 33 32 34 34 33 32 31 31 28 26 23 20 21 20 25 38 55 75 91 100 100 97 96 96 98 100 100 99 99 99 99 100 100 95 86 72 62 64
15 23 32 42 50 54 51 44 38 33 31 32 32 33 34 35 36 36 40 43 40 37 36 33 30 28 25 23 21 22 27 36 49 70 88 95 98 98 93 95 100 100 99 100 98 100 101 100 97 83 73 78
5 5 7 12 20 32 45 53 54 49 41 36 34 34 35 37 39 38 42 47 45 40 41 43 41 35 31 30 28 24 23 23 21 27 44 61 77 86 87 91 99 101 99 99 100 100 99 101 101 96 93 94
4 4 4 5 5 7 14 26 42 54 56 49 41 37 37 37 39 41 42 45 46 44 46 55 60 52 41 37 35 32 27 25 25 22 20 25 30 39 54 68 85 101 102 96 99 102 100 99 99 99 102 98
7 6 6 5 5 5 5 7 14 29 46 54 52 46 43 40 39 41 44 46 47 45 47 55 65 74 76 64 45 37 37 31 28 26 23 23 21 19 25 30 44 77 101 99 91 94 99 101 100 100 101 99

ECMWFFLT2_500_rhum_144.txt.gz
RH
3 3 3 3 3 4 4 7 9 13 34 56 63 63 61 70 75 75 88 94 95 94 87 90 94 99 101 99 99 99 100 98 94 89 85 85 87 87 70 49 39 32 25 22 22 37 56 61 68 76 71 61
4 3 3 3 2 4 4 5 6 8 17 32 48 59 66 79 82 81 89 88 89 93 85 86 90 95 101 99 97 98 99 100 98 96 95 91 92 96 88 72 66 67 61 47 31 31 42 49 63 74 72 60
4 4 3 3 3 3 3 4 5 12 20 28 51 71 76 80 84 87 89 86 87 91 86 88 96 96 99 97 95 100 101 99 97 98 100 98 98 97 95 89 84 85 85 79 61 42 34 38 50 59 67 70
3 4 4 3 3 3 3 4 5 26 54 70 84 90 86 81 86 90 88 88 90 91 86 89 100 99 97 93 87 93 100 101 99 99 98 97 99 99 98 96 93 90 88 89 84 72 56 46 46 48 54 64
3 3 4 3 3 3 3 3 7 44 85 98 100 99 96 91 91 97 96 95 95 95 92 91 98 96 95 96 87 84 92 97 97 97 96 94 94 98 100 97 97 95 93 95 93 88 80 69 61 54 48 47
3 3 3 3 3 3 4 4 4 40 86 99 99 99 100 98 96 98 99 99 98 98 97 94 97 96 94 99 96 87 87 91 91 89 88 86 82 87 92 92 97 97 95 99 99 95 92 88 78 66 52 48
4 3 3 3 4 3 2 6 3 28 80 101 99 97 98 100 99 99 99 99 99 99 99 98 100 100 96 97 99 93 88 90 90 86 81 80 77 80 85 85 93 99 99 100 101 100 99 97 91 82 71 70
5 3 4 3 3 4 2 5 4 18 59 89 99 100 99 99 98 99 100 99 99 99 100 100 99 100 100 99 99 98 94 93 95 94 88 85 81 82 87 86 88 95 100 100 101 100 100 100 98 98 94 93
7 5 4 4 3 4 3 3 4 6 22 51 77 88 93 98 99 99 100 99 100 101 100 100 100 98 100 100 99 101 100 98 96 96 93 92 91 91 93 91 88 92 98 99 99 100 100 100 99 100 100 100
9 7 5 5 4 4 4 3 4 4 7 20 42 62 78 85 91 96 99 100 98 99 100 99 100 99 99 100 100 99 96 95 91 86 86 91 95 94 93 94 92 92 98 99 97 99 100 100 99 98 99 100
11 10 9 7 6 4 4 4 3 3 4 8 24 53 69 66 77 92 90 94 99 99 101 101 99 99 100 99 100 98 93 91 89 85 81 84 90 91 88 90 91 91 97 100 99 99 100 101 100 94 93 98
13 12 12 10 9 7 5 5 4 4 4 4 11 33 44 38 59 94 95 89 94 95 95 99 100 99 100 100 100 100 98 96 94 91 85 80 82 86 87 87 87 88 91 94 97 99 99 100 101 96 90 92
16 15 14 13 12 11 9 7 5 4 4 4 4 7 13 12 29 76 102 95 92 95 94 95 99 100 98 98 100 99 100 100 99 97 91 84 80 80 83 85 85 86 88 89 90 93 96 98 100 101 97 93
18 17 17 16 15 14 13 11 9 7 5 5 6 3 5 9 10 40 87 103 97 95 95 93 97 100 99 96 98 100 99 96 95 99 97 93 91 86 83 81 79 80 84 88 89 89 90 92 96 100 101 100
19 19 19 18 18 17 16 15 13 11 10 6 6 6 4 8 7 12 47 87 101 99 98 95 90 92 98 98 95 96 95 91 90 94 96 96 97 97 96 92 86 83 85 88 90 91 90 88 89 94 98 99
19 19 19 20 19 19 19 18 17 15 15 12 9 9 6 6 7 5 13 42 71 85 88 82 70 69 82 92 94 94 91 89 87 86 86 90 97 98 98 98 93 90 91 90 86 88 91 91 88 88 94 97
20 20 20 20 20 20 20 20 20 19 17 17 14 12 11 8 7 8 6 10 22 37 51 56 50 44 51 66 81 93 96 92 87 84 87 94 100 100 99 97 91 86 85 85 84 84 87 92 92 89 90 95
20 20 20 20 20 20 21 21 21 21 20 20 19 17 15 13 10 9 8 8 6 9 18 35 51 54 55 57 64 82 97 99 94 92 97 100 98 98 98 97 92 86 82 81 82 84 87 90 92 91 90 92
19 20 20 20 21 20 20 21 21 22 22 21 21 21 20 18 16 13 10 9 9 9 7 16 48 78 86 76 72 88 99 99 99 99 101 99 95 94 92 92 92 89 84 82 81 81 86 91 93 93 91 90
19 19 20 20 21 21 20 20 21 21 22 22 22 22 23 22 22 19 17 13 10 12 9 9 32 72 96 89 83 95 101 100 100 100 101 99 95 92 89 88 89 87 83 80 77 76 77 84 91 94 95 93
17 18 19 20 20 21 21 21 21 21 21 22 22 23 23 24 24 24 22 21 17 13 13 11 16 41 68 78 85 94 96 98 100 99 100 99 97 95 92 93 91 88 85 80 76 73 70 72 79 87 92 94
22 20 18 19 20 21 22 21 21 22 22 22 22 23 23 24 25 26 25 25 24 19 17 14 12 20 31 43 66 90 100 99 97 98 101 100 100 99 97 98 99 96 91 84 78 75 72 69 71 77 83 86
48 41 32 25 21 20 22 23 23 22 22 22 23 23 23 24 24 25 27 28 27 25 22 18 16 21 29 31 33 53 85 100 97 99 102 100 100 101 99 97 99 101 95 87 84 82 78 73 71 70 72 75
66 66 61 53 41 31 25 22 23 23 24 23 23 24 23 24 25 23 26 28 29 28 26 23 19 19 31 41 32 30 53 78 91 99 101 100 100 99 99 97 98 101 99 93 90 88 84 78 75 74 74 74
42 51 59 65 65 60 50 39 31 26 25 25 24 25 24 24 26 24 25 26 28 30 29 27 25 21 20 28 37 38 38 49 70 90 99 101 101 101 100 99 99 100 101 98 92 90 91 89 86 85 82 78
12 18 25 34 45 55 60 60 55 46 37 31 28 27 27 27 26 26 26 26 26 28 30 30 28 27 23 18 24 29 26 28 48 79 99 101 99 99 99 101 100 98 100 100 97 96 98 99 97 91 83 79
4 5 7 9 13 20 30 40 50 56 56 50 42 34 30 29 29 29 28 29 32 28 26 32 32 30 31 27 23 23 22 21 34 65 87 95 103 102 97 100 101 99 99 99 100 101 100 100 101 95 86 81
5 5 4 4 5 6 8 12 19 30 42 51 55 51 43 35 31 31 31 34 44 39 27 28 33 31 30 32 31 27 27 23 24 40 52 62 81 87 88 99 101 98 100 100 98 100 101 99 99 98 94 92
7 6 6 5 5 5 5 5 6 8 13 23 36 48 55 51 42 35 33 35 44 44 33 34 50 54 39 31 34 32 31 31 26 32 48 54 49 45 60 88 101 99 99 100 100 99 99 96 96 99 98 97
9 8 8 8 7 6 5 5 5 6 6 7 10 20 35 50 55 49 40 37 40 44 40 46 77 95 70 40 41 44 38 36 34 37 54 61 46 34 43 68 91 102 100 99 100 100 99 94 92 92 88 88
9 9 9 10 9 9 8 8 7 6 6 7 6 6 9 21 38 50 52 45 41 43 44 49 75 106 99 68 64 73 61 48 45 44 50 53 43 32 31 38 58 83 99 102 100 99 100 99 94 88 83 84

ECMWFFLT2_500_rhum_150.txt.gz
RH
4 4 4 4 4 4 3 3 3 3 3 2 3 2 2 2 2 3 2 3 2 5 2 23 79 85 70 88 91 76 81 96 100 101 102 99 93 85 78 79 86 85 82 84 76 67 64 65 48 25 19 15
5 5 5 5 4 4 4 4 3 3 3 2 3 2 3 2 5 6 3 4 1 4 13 32 57 64 79 99 98 86 80 94 101 99 101 98 96 89 79 80 87 86 86 88 80 69 61 57 43 25 21 17
5 5 5 5 5 5 4 5 4 4 3 3 3 2 4 1 6 11 7 9 3 5 32 58 58 47 67 91 97 97 92 98 101 98 101 98 98 97 88 88 94 94 93 94 89 80 70 58 46 32 20 17
6 6 6 6 6 5 5 5 5 5 4 4 3 4 3 3 29 47 40 35 17 7 30 55 62 58 67 86 97 100 100 101 100 101 101 97 98 98 94 95 100 101 98 98 95 91 88 75 59 46 30 21
7 7 7 7 7 6 6 6 6 5 5 5 3 4 2 3 33 67 75 69 41 12 11 24 46 65 74 85 95 98 100 101 101 101 99 99 99 97 97 99 101 100 96 97 98 98 99 92 76 65 55 42
8 9 8 8 8 7 7 6 7 6 6 6 4 4 5 2 7 40 78 87 69 41 16 14 42 70 74 79 87 91 96 101 103 97 91 95 96 95 98 101 102 99 95 95 98 98 101 100 92 88 86 76
10 10 10 10 9 9 9 8 8 8 8 6 7 4 4 6 -0 19 65 89 93 79 45 23 40 65 70 72 80 82 87 95 101 98 92 93 94 93 93 97 100 99 99 98 99 99 100 101 98 96 94 91
12 11 11 11 11 11 10 10 9 9 10 8 8 7 5 6 4 8 34 66 92 99 85 65 59 67 72 80 87 88 91 95 100 100 99 98 99 98 95 98 98 96 100 99 100 101 100 100 98 97 92 88
13 13 13 13 12 12 12 12 12 11 11 11 9 9 8 6 6 5 8 23 46 68 86 96 96 95 93 96 99 98 99 99 100 100 100 100 100 100 99 101 98 93 94 94 97 99 98 100 100 97 90 86
13 14 14 14 14 13 13 13 13 13 13 13 12 11 10 9 7 6 5 4 8 18 34 55 80 98 102 101 100 101 101 100 100 100 100 101 100 99 98 100 100 97 95 91 93 95 92 93 95 95 91 88
13 13 14 14 15 14 14 14 13 14 14 14 14 14 12 12 10 8 7 6 4 4 5 13 34 63 87 100 101 101 102 101 100 100 100 100 100 100 99 99 100 99 100 96 94 96 92 88 88 88 88 88
13 13 13 13 14 15 15 15 14 14 15 15 15 15 15 13 13 11 9 7 6 5 5 6 9 21 45 71 88 94 99 102 102 101 100 100 101 101 100 100 100 100 100 99 96 98 97 94 92 88 85 83
13 13 14 13 13 14 14 14 15 15 15 15 16 16 17 16 15 14 13 11 9 7 5 5 6 6 11 28 53 69 80 92 98 99 97 97 98 101 102 100 100 101 102 101 100 100 100 99 98 94 90 83
13 14 15 15 15 14 14 14 14 15 14 15 16 16 16 17 17 16 15 14 12 11 9 6 6 6 4 8 20 33 44 57 71 81 86 87 89 93 98 101 101 101 102 102 100 98 98 99 101 100 96 91
15 16 16 16 17 16 16 16 15 14 14 14 14 15 17 17 17 17 17 17 16 14 13 11 9 7 7 6 6 9 13 20 33 48 61 68 75 80 83 91 98 100 100 99 98 96 95 95 98 102 100 95
18 18 19 19 19 19 18 17 17 16 15 15 14 14 15 16 17 18 17 18 18 17 16 14 12 11 9 8 7 7 6 7 12 21 36 51 62 72 78 84 90 95 97 95 96 93 93 94 93 97 100 97
18 18 19 20 21 21 21 20 19 18 17 16 16 15 15 15 15 17 18 18 19 19 19 18 17 15 13 12 11 10 9 8 7 8 19 40 60 68 74 86 89 90 93 94 95 94 92 92 90 89 90 93
31 28 25 23 22 21 21 22 22 21 21 19 18 17 16 16 15 15 16 17 19 19 19 20 19 18 17 16 14 13 12 11 11 8 7 24 59 77 77 87 93 88 91 94 94 95 95 92 90 89 86 87
42 42 41 39 35 32 28 25 23 22 22 22 22 20 19 17 17 16 16 16 17 18 19 20 20 21 20 19 18 17 15 14 12 12 9 10 38 75 87 95 101 95 92 96 97 97 98 95 90 89 87 84
26 29 34 38 41 42 42 40 36 31 27 24 23 22 23 22 20 19 17 17 17 17 18 18 19 20 21 22 22 20 18 19 15 13 15 9 15 38 54 70 89 96 92 92 96 98 99 98 95 90 86 84
9 11 14 17 22 26 31 36 39 41 40 37 32 26 24 23 24 23 21 20 19 19 18 18 19 19 21 22 22 24 23 21 20 17 15 15 16 19 21 29 42 57 70 81 88 89 89 91 94 94 88 83
7 6 7 7 8 10 12 16 20 26 32 37 41 39 35 29 26 25 24 24 22 21 21 20 21 19 20 21 21 24 24 27 31 24 19 20 25 40 53 43 33 34 35 49 64 69 77 83 88 92 92 88
7 7 7 7 7 6 7 7 8 9 12 16 23 31 38 41 39 35 30 28 26 24 22 22 23 23 23 21 22 22 22 39 50 34 23 26 29 57 91 80 69 73 53 41 43 44 58 67 75 84 84 87
7 7 7 7 7 7 7 7 6 7 6 6 8 10 17 26 36 43 44 43 39 35 30 25 23 23 25 24 23 24 22 32 42 31 24 30 26 40 74 76 71 85 87 81 63 49 60 61 66 82 79 80
7 7 7 7 7 7 7 7 7 7 6 7 6 6 6 7 14 23 35 45 50 52 49 44 36 27 26 25 25 30 29 27 30 31 28 32 30 26 41 53 56 68 88 105 89 70 83 85 82 90 89 90
7 7 7 7 7 7 7 7 7 7 7 7 7 7 7 6 6 7 12 23 34 46 53 58 59 50 39 30 27 32 41 46 45 38 30 30 34 31 32 38 53 78 94 103 99 84 83 93 99 95 93 101
7 7 7 6 7 7 7 7 7 7 7 7 7 7 8 7 8 7 5 8 12 22 32 44 56 62 61 50 38 34 43 65 75 57 36 30 32 32 33 32 44 78 100 101 100 96 86 84 95 96 92 100
6 6 6 6 6 6 6 6 6 7 6 6 7 7 8 7 8 8 8 7 6 8 12 21 32 44 58 63 58 47 41 57 86 88 57 34 32 33 34 35 36 53 83 102 102 100 99 91 90 93 90 96
6 6 6 5 6 6 5 6 5 6 6 6 7 6 6 7 7 8 8 8 8 7 7 9 14 22 34 51 63 64 54 45 65 100 92 53 34 31 31 34 35 39 58 88 102 99 100 101 98 96 90 91
7 6 7 6 6 6 6 6 5 5 5 5 6 6 6 6 6 7 7 8 8 8 9 7 8 11 15 27 43 59 70 57 55 90 103 80 64 56 53 50 40 36 43 65 94 102 98 101 102 98 95 91
8 8 8 7 7 7 7 7 6 6 6 5 5 5 5 6 5 6 6 7 8 7 9 9 8 9 9 13 21 34 56 65 69 88 88 79 90 92 88 87 70 50 43 54 83 101 100 101 102 99 100 98

ECMWFFLT2_500_rhum_156.txt.gz
RH
5 5 5 5 5 5 5 5 5 5 5 5 5 5 5 4 4 4 3 4 4 4 3 3 3 2 3 2 2 2 2 2 1 2 2 2 3 2 4 6 12 26 37 42 45 52 57 62 74 75 75 84
6 6 5 6 5 6 6 5 6 6 6 6 6 5 6 5 5 5 4 4 4 4 4 3 3 3 3 3 3 2 2 2 2 3 1 2 2 1 3 4 12 37 60 58 45 39 45 66 85 84 80 87
6 6 6 6 6 6 6 6 6 6 7 7 7 7 6 6 6 5 5 5 5 5 4 4 4 4 4 3 3 2 3 2 2 3 3 4 2 3 2 2 15 46 74 71 54 34 34 69 94 95 90 88
6 6 6 6 6 6 6 6 7 7 7 8 8 8 8 8 8 7 6 6 6 6 5 5 4 4 4 4 4 3 3 2 3 3 4 5 4 4 1 16 34 49 76 80 66 45 38 67 90 97 97 95
7 7 7 7 7 6 6 7 6 7 7 8 8 9 9 9 9 9 8 7 7 7 7 6 5 5 4 4 4 3 4 3 3 3 6 9 9 8 -1 31 71 74 85 97 89 68 54 66 83 95 97 98
10 9 9 8 8 8 7 7 6 7 6 7 8 9 9 9 10 10 10 9 9 8 8 7 7 7 6 5 4 4 4 3 5 6 16 24 21 17 0 18 75 96 89 92 101 87 77 82 83 91 92 93
13 13 12 12 11 11 10 9 8 7 7 6 7 7 8 9 10 10 10 11 11 10 10 9 8 8 7 7 6 5 5 4 6 7 17 32 35 29 11 0 41 94 96 77 89 94 91 96 92 92 90 90
15 15 15 15 15 14 13 12 12 10 10 8 7 7 7 7 8 9 10 11 11 12 11 11 10 10 10 8 8 6 6 5 5 5 6 19 35 39 32 10 8 59 97 82 82 99 100 98 98 97 94 93
17 17 17 17 17 17 16 15 14 14 13 12 11 9 7 6 7 7 8 9 10 12 12 12 12 12 12 11 11 9 8 7 5 6 4 5 17 30 44 39 7 18 75 98 93 97 98 98 98 100 98 97
22 22 22 22 21 20 19 18 17 17 16 15 14 12 11 8 7 7 6 7 8 10 11 12 13 12 13 12 13 12 10 9 8 7 7 5 8 24 50 62 35 7 33 79 96 97 98 98 99 100 100 99
25 25 25 26 27 27 26 25 23 21 19 18 17 16 15 13 10 8 7 7 7 8 9 10 12 12 13 14 14 14 12 11 11 10 8 7 8 21 47 66 62 33 19 37 65 85 95 96 96 98 99 100
26 25 26 27 28 30 31 32 32 32 30 27 24 21 19 17 15 12 10 9 7 7 8 9 10 12 12 13 14 14 15 13 12 12 10 9 9 17 35 53 65 61 44 34 43 62 76 85 91 96 100 101
25 25 26 26 27 29 30 32 34 36 37 37 36 34 30 26 22 18 15 12 11 9 8 9 9 10 12 12 14 14 14 16 14 14 13 11 11 16 26 43 66 79 72 51 45 58 69 77 84 91 95 95
18 18 18 19 20 21 22 24 26 28 31 34 37 39 40 39 36 31 25 19 15 12 11 11 10 10 12 12 13 14 13 15 16 15 15 14 11 11 14 29 58 85 92 74 60 66 74 74 73 78 83 82
11 11 11 11 12 12 13 13 15 16 18 21 24 28 32 36 40 41 40 36 28 22 16 13 12 12 12 13 13 14 14 14 15 15 16 16 15 13 10 12 27 51 73 79 77 82 89 89 85 85 86 85
8 8 8 8 9 9 9 9 9 9 10 11 12 14 17 20 25 31 36 40 41 39 33 24 18 14 13 14 15 15 15 14 14 15 15 16 16 16 15 11 10 17 27 39 53 65 78 89 95 99 100 98
6 6 6 7 7 7 7 7 8 8 8 8 8 8 9 10 11 15 18 24 31 37 41 41 35 28 21 16 15 16 16 17 16 15 15 15 16 16 17 16 13 12 11 11 17 25 35 48 61 76 88 96
5 5 5 5 5 6 6 6 6 6 7 7 8 8 7 8 7 8 9 10 13 18 25 33 38 40 37 31 24 19 17 17 18 18 17 15 16 16 16 17 16 15 14 12 11 10 12 15 21 31 43 56
6 6 6 6 5 6 5 5 6 5 6 6 6 7 7 8 8 7 7 7 7 8 10 14 20 27 35 39 38 33 26 20 18 19 20 19 17 17 16 17 18 17 17 16 15 14 12 11 11 11 13 17
7 7 7 7 7 7 7 6 6 6 6 6 6 6 6 6 7 7 7 7 7 7 7 7 8 11 16 23 31 37 39 34 28 21 20 21 20 20 18 17 17 17 17 18 18 17 16 15 14 12 11 10
8 8 8 8 8 8 8 7 7 8 7 7 7 6 7 6 6 6 6 7 7 7 7 7 7 7 7 9 13 20 29 36 38 34 28 23 21 21 21 20 18 17 17 18 18 18 18 18 17 15 14 12
9 9 8 8 8 7 7 7 7 7 6 6 6 6 6 6 6 6 6 6 6 6 7 7 7 7 7 7 7 8 11 18 26 34 37 34 28 23 22 23 22 21 18 18 18 18 19 19 19 19 17 16
8 7 7 6 6 6 5 5 5 5 5 5 5 5 5 5 5 5 5 6 6 6 6 6 7 7 7 6 7 7 6 8 11 16 24 32 36 33 27 23 23 24 23 21 19 18 20 19 20 20 20 19
6 5 5 5 5 5 5 5 5 5 5 5 5 4 4 4 4 4 4 4 4 5 6 6 6 6 7 7 6 7 6 7 7 7 9 14 23 32 35 32 27 25 25 26 23 20 20 19 20 21 21 22
5 5 6 6 6 6 6 6 6 6 6 6 6 5 5 5 4 4 4 4 3 4 4 4 6 6 6 6 6 7 6 6 7 7 8 7 9 15 24 34 36 33 30 29 28 26 23 21 21 21 21 22
6 6 6 6 7 7 7 7 7 7 7 7 7 6 6 6 5 5 4 4 3 3 4 3 4 4 5 6 6 6 6 7 7 6 7 7 8 7 9 17 28 36 38 35 33 31 28 25 24 23 23 22
6 7 7 7 7 8 7 8 8 9 9 8 8 8 7 6 5 5 4 4 4 3 4 3 3 3 4 4 5 6 6 6 7 7 7 7 7 8 7 7 11 20 31 37 40 38 35 31 27 25 24 24
7 7 7 8 8 9 9 9 10 10 10 10 10 9 8 8 6 6 5 4 4 4 4 3 4 4 3 4 4 4 5 6 6 6 6 7 6 7 7 8 7 8 13 23 33 41 44 40 38 36 28 26
8 8 8 9 9 10 10 11 11 11 11 11 11 11 9 8 7 6 5 4 4 4 5 4 4 4 4 5 4 4 4 4 5 6 6 6 6 7 7 7 8 8 7 10 16 28 41 47 52 51 36 28
9 9 10 10 10 11 11 12 12 12 13 13 12 12 11 9 8 7 6 5 5 5 5 5 6 6 6 6 6 6 5 5 4 5 5 6 6 6 7 7 7 8 8 8 8 12 25 38 51 56 43 33
10 11 12 12 12 12 13 13 14 14 14 14 14 13 12 10 9 8 7 6 6 6 6 7 7 9 10 9 9 8 7 6 5 5 5 5 6 5 6 6 6 7 7 8 9 7 11 21 34 48 48 43

ECMWFFLT2_500_rhum_162.txt.gz
RH
6 6 7 7 6 7 6 6 6 6 7 7 7 7 7 7 7 7 7 7 7 7 6 6 6 6 5 5 4 4 5 5 4 4 4 4 4 4 4 3 3 3 3 3 3 2 2 2 1 2 1 2
8 8 8 8 8 8 7 7 8 7 8 8 8 8 8 8 8 8 8 7 7 7 7 7 7 7 7 7 6 6 5 5 5 5 5 5 5 4 4 3 3 3 3 3 3 3 2 2 2 2 1 2
9 9 9 9 10 10 10 10 10 10 10 10 10 10 9 9 9 9 9 9 8 8 7 7 7 7 7 7 8 8 7 7 7 6 5 5 5 5 5 5 4 4 3 3 3 3 3 2 2 2 2 2
11 11 12 12 12 12 12 12 12 12 12 12 12 12 11 11 11 11 10 10 10 9 9 8 8 7 7 7 7 7 7 8 8 8 8 7 6 6 5 6 5 5 4 4 4 4 3 3 3 2 2 2
14 14 15 14 15 15 15 15 14 14 14 14 13 13 13 13 12 12 12 11 12 11 11 10 10 9 9 8 8 7 7 7 7 8 8 8 8 8 7 6 6 6 5 5 4 4 4 4 3 2 2 2
16 16 16 16 16 17 17 17 17 17 17 16 16 16 15 15 14 14 13 13 12 12 12 11 11 11 10 10 9 9 8 8 8 7 8 8 8 8 8 8 7 6 6 6 6 5 5 4 4 3 3 2
18 18 18 19 19 19 20 20 20 19 19 18 18 17 17 16 15 15 14 14 13 13 12 12 12 11 11 11 10 10 9 9 9 8 8 8 8 8 8 9 9 9 8 6 6 6 6 5 4 4 3 3
21 22 22 22 22 22 21 21 20 20 19 18 18 17 17 16 16 15 15 15 14 14 13 13 12 12 12 11 11 11 10 10 10 10 9 9 10 10 9 8 8 9 9 9 7 7 7 7 6 5 4 4
25 24 24 23 22 21 20 19 18 18 17 17 17 16 16 15 15 15 15 15 14 14 14 14 13 13 13 12 12 12 12 11 11 11 10 10 10 10 11 10 10 9 9 9 9 8 7 7 7 7 5 4
23 22 21 19 18 18 17 16 16 15 15 14 14 14 14 13 13 13 13 13 13 13 13 12 13 12 12 12 12 12 12 12 12 13 12 12 11 11 11 11 12 11 10 9 9 10 9 8 7 8 7 6
19 18 17 16 15 15 14 14 13 13 12 12 12 11 11 11 10 10 10 10 10 10 10 10 10 10 11 11 11 11 11 11 11 12 12 13 13 13 12 12 12 12 12 11 9 10 10 10 8 7 8 7
16 15 14 14 13 12 12 11 10 10 10 9 9 8 8 8 8 7 7 7 7 7 7 8 8 8 8 8 9 9 9 10 10 10 10 11 12 13 13 13 13 13 13 13 12 11 10 11 10 9 7 8
13 13 12 11 10 9 8 8 7 7 7 6 6 6 5 5 5 5 5 5 5 5 5 5 5 6 6 6 6 7 7 7 8 8 9 9 10 11 12 13 13 14 14 14 14 13 12 11 11 11 8 8
10 9 8 7 7 6 6 5 5 4 4 4 4 4 4 4 4 4 4 4 4 4 4 4 4 4 4 4 5 5 5 5 5 6 6 7 8 8 9 10 12 13 15 15 15 15 14 13 11 13 11 9
7 6 5 5 4 4 4 4 3 3 3 3 3 3 3 3 3 3 3 3 4 4 4 4 4 4 4 4 4 4 4 4 4 4 4 5 5 6 7 8 10 11 13 15 16 16 15 16 14 14 14 11
5 4 4 4 4 3 3 3 3 3 3 3 3 3 3 3 4 4 4 4 4 4 4 4 4 4 4 4 4 4 4 4 4 4 4 4 4 4 5 6 8 8 10 12 14 17 17 17 18 17 17 13
4 4 4 3 3 3 3 3 3 3 3 4 4 4 4 4 5 5 5 6 6 6 6 6 6 5 5 5 5 5 5 5 4 5 4 4 4 4 4 4 5 6 7 9 10 14 16 17 20 19 20 19
4 4 4 4 3 3 4 4 4 4 4 5 5 6 6 6 7 7 7 7 7 7 6 6 6 6 6 5 5 5 5 5 5 5 5 5 5 4 5 4 4 5 5 7 8 9 12 15 18 21 22 24
4 4 4 4 4 4 4 4 5 5 6 6 7 8 8 8 8 8 7 7 6 6 6 6 5 5 5 5 5 5 4 5 4 5 5 4 5 4 5 5 4 5 5 5 7 7 9 11 13 19 22 25
4 4 5 4 5 5 5 5 6 6 7 8 8 9 9 9 8 7 6 6 6 5 5 5 5 5 5 4 4 4 4 4 4 4 4 4 4 4 4 5 4 4 5 4 5 6 6 8 9 12 18 22
5 5 5 5 6 6 6 7 7 8 8 8 9 9 8 8 7 6 5 5 5 5 5 5 5 5 4 5 4 4 4 4 4 4 4 4 3 4 3 3 4 3 4 5 4 5 5 6 8 8 12 16
6 6 6 7 7 7 7 8 8 9 9 9 9 8 7 6 5 5 5 5 5 5 5 5 5 5 4 5 4 4 4 4 4 4 4 4 3 4 4 3 4 3 3 4 4 4 5 5 6 7 8 11
8 8 8 8 8 8 8 8 9 9 9 8 7 7 6 6 5 5 5 5 5 5 6 5 5 5 5 5 5 5 5 5 5 6 5 5 5 4 5 4 3 4 3 3 3 3 4 4 4 5 6 7
9 9 9 9 8 8 8 8 9 8 8 7 6 6 5 5 5 5 6 5 6 6 5 6 6 7 8 7 8 7 7 7 7 7 7 6 7 6 6 6 4 4 4 3 3 3 3 3 3 4 5 5
10 10 10 10 9 9 8 8 9 8 7 7 6 6 5 5 6 5 6 6 6 6 5 7 8 9 10 10 10 10 9 9 8 8 8 7 7 7 6 6 5 5 4 4 4 4 3 3 3 3 3 4
10 11 11 10 9 9 8 8 8 8 7 6 6 6 6 6 6 6 6 6 6 6 7 9 10 11 11 12 11 11 10 10 10 8 8 8 7 7 6 5 5 4 4 4 4 4 4 3 3 3 3 3
11 12 12 11 10 8 8 8 7 7 6 6 6 6 6 6 7 7 6 6 7 8 10 11 12 12 12 12 12 12 11 10 10 9 8 7 6 6 5 5 5 4 4 4 4 3 4 3 3 3 3 3
12 13 13 11 10 8 7 8 7 7 7 6 6 6 7 7 7 7 7 8 10 11 12 12 12 13 11 11 11 10 11 10 9 9 7 7 6 6 6 5 5 5 5 4 4 4 3 3 3 3 3 3
14 14 13 11 9 8 7 7 7 7 7 7 7 7 8 8 7 8 10 12 13 13 14 14 13 12 10 9 9 9 9 9 9 8 8 7 7 7 7 7 7 7 7 6 5 4 4 3 3 3 3 3
16 15 13 10 8 7 6 7 7 7 8 7 8 8 8 9 10 12 14 14 15 15 15 15 13 11 10 9 9 9 9 9 9 9 9 9 9 9 9 9 9 9 8 8 7 6 5 4 3 3 3 2
17 15 13 10 8 7 7 7 8 7 8 8 8 9 10 11 13 15 15 15 16 16 16 16 14 12 11 10 10 10 10 10 10 10 11 11 11 11 11 11 11 11 10 9 9 7 6 5 4 3 3 3

ECMWFFLT2_500_rhum_168.txt.gz
RH
9 7 6 5 5 5 5 5 6 6 7 7 8 8 8 8 8 8 8 8 9 9 9 10 10 10 10 10 10 10 10 9 9 9 9 9 8 9 8 8 8 8 7 7 6 6 6 6 6 6 6 6
6 5 5 5 5 6 6 7 7 8 8 9 9 9 9 8 9 9 9 9 9 10 10 10 11 12 12 12 13 12 12 12 11 11 10 10 9 9 9 9 9 9 9 8 8 7 7 7 6 6 5 6
5 5 5 6 6 7 8 9 9 9 9 9 9 9 10 10 10 10 11 11 11 12 12 12 13 14 14 15 15 15 15 15 15 14 13 12 12 11 11 10 10 9 9 9 9 9 9 8 8 7 6 6
6 6 7 8 9 9 10 10 10 10 11 11 11 11 11 12 12 13 13 14 14 15 15 16 16 16 16 16 17 17 17 17 17 16 16 15 15 14 13 13 12 11 11 11 10 10 10 10 9 9 9 8
7 8 9 10 10 11 11 11 11 12 12 13 13 14 14 14 15 15 15 16 16 16 17 17 17 17 17 17 17 17 17 17 17 17 16 16 16 16 15 15 14 14 13 13 13 12 12 11 11 11 10 10
9 10 11 11 11 12 12 13 13 14 15 15 16 16 17 17 17 17 17 18 18 18 18 18 18 17 17 17 17 16 16 16 16 16 16 16 15 15 15 15 15 15 14 14 14 14 13 13 13 12 12 12
10 11 12 13 13 14 14 15 16 17 17 18 19 19 20 20 20 20 20 20 19 19 19 19 18 18 18 17 17 16 16 15 15 15 14 14 14 14 14 14 14 14 14 14 14 13 14 14 13 14 13 13
11 12 13 14 16 17 18 19 20 21 21 22 22 22 22 22 22 22 21 21 21 20 20 19 19 18 17 17 16 15 15 14 14 13 13 13 12 12 12 12 12 12 12 12 12 12 12 13 12 13 13 13
14 15 16 17 19 21 22 23 24 24 25 25 25 24 24 23 23 22 22 21 20 20 19 18 17 17 16 15 14 13 12 12 11 11 10 10 10 10 10 9 10 9 10 10 10 10 10 11 11 11 11 12
16 18 19 21 23 25 26 26 27 26 26 26 26 25 24 24 23 22 21 20 20 19 17 16 15 14 13 12 11 10 9 9 8 8 7 7 7 7 7 7 7 7 7 7 7 7 8 8 8 9 9 10
20 22 24 26 27 28 28 28 28 28 27 26 26 25 24 23 22 21 20 18 17 16 15 13 12 11 10 9 8 7 6 6 5 5 5 4 4 4 4 4 4 4 4 4 4 5 5 6 6 6 7 7
25 27 29 30 30 30 30 29 29 28 27 26 25 24 22 21 19 18 17 15 14 12 11 10 9 8 7 6 5 5 4 4 4 3 3 3 3 3 3 3 2 2 2 3 2 3 3 3 4 4 5 5
30 31 32 33 32 31 30 29 28 27 26 24 22 20 19 17 16 15 13 12 10 9 8 7 7 6 5 5 4 4 3 3 3 3 3 2 2 2 2 2 2 2 2 2 2 2 2 2 2 2 3 3
33 34 34 33 32 31 29 28 26 24 22 20 18 16 14 13 12 11 9 8 7 7 6 5 5 4 4 4 3 3 3 3 3 3 3 2 2 2 2 2 2 2 2 2 2 2 2 2 2 2 2 2
35 34 33 32 30 29 27 25 23 20 18 16 14 12 11 10 8 8 7 6 6 5 5 4 4 4 3 3 3 3 3 3 3 3 3 2 3 2 2 2 2 3 3 3 3 3 3 3 3 2 3 3
34 33 31 29 27 26 23 21 18 16 14 12 11 9 8 7 7 6 6 5 5 4 4 4 4 4 3 3 3 3 3 3 3 3 3 3 3 3 3 3 3 3 3 3 3 4 3 3 3 3 3 3
32 30 28 27 24 21 19 16 14 12 11 9 8 7 7 6 6 5 5 5 4 4 4 4 4 4 4 4 4 4 4 4 4 3 3 3 3 3 3 3 4 4 4 4 4 4 4 4 4 4 4 4
29 27 25 23 20 17 15 13 11 10 9 8 7 6 6 5 5 5 5 5 4 4 4 5 4 4 5 4 4 4 4 4 4 4 4 4 4 4 4 4 4 4 4 4 4 4 4 4 4 3 4 3
26 24 21 18 16 14 12 11 9 8 7 7 6 6 6 5 5 5 5 5 5 5 5 5 5 5 5 5 5 5 5 5 4 5 5 4 5 5 5 5 5 5 5 5 4 4 4 4 4 4 4 4
22 19 17 15 13 12 11 9 8 7 7 6 6 6 6 6 6 6 6 6 6 6 6 6 6 6 6 6 6 6 6 6 5 5 6 5 6 6 6 6 5 5 5 5 4 4 4 4 4 4 4 4
17 15 14 12 12 11 10 9 7 7 7 7 7 7 7 7 7 7 7 7 7 8 8 8 8 7 8 7 7 7 7 7 7 6 6 6 6 6 6 6 6 6 5 5 5 4 4 4 4 4 4 4
14 13 12 12 11 10 9 8 8 7 7 7 8 8 8 8 9 9 9 9 9 9 9 9 9 9 9 9 8 8 8 8 8 7 7 7 7 7 7 7 6 6 5 5 5 4 5 5 5 5 5 5
13 12 12 11 10 10 9 9 8 8 8 9 9 9 10 10 11 11 11 11 11 11 11 11 11 11 10 10 10 10 10 9 9 9 9 8 8 8 7 7 7 6 6 5 5 5 5 5 5 5 5 5
12 12 11 11 10 10 10 9 9 10 10 10 11 11 12 12 12 13 13 13 13 13 13 13 13 13 12 12 12 12 12 11 11 10 10 10 9 9 8 7 7 6 6 5 5 5 5 6 6 6 6 6
12 12 12 11 11 11 11 11 11 11 11 12 13 13 14 14 14 15 15 15 15 15 15 15 15 15 15 14 14 14 14 13 12 12 11 11 10 10 9 8 7 6 6 6 5 5 5 6 7 7 7 8
12 13 13 12 12 12 12 12 13 13 14 15 15 16 16 17 17 17 18 18 18 18 18 18 17 17 17 17 17 16 16 15 14 13 12 12 11 11 10 9 8 7 6 6 5 6 6 6 8 8 9 9
13 14 13 13 13 13 14 14 15 15 17 18 18 19 19 20 21 21 21 21 21 21 21 21 20 20 20 19 19 19 18 18 17 15 14 13 12 12 11 10 9 8 7 7 6 6 6 6 7 8 9 10
15 15 14 14 14 14 15 16 17 18 21 22 21 22 23 24 25 25 25 26 26 26 25 25 24 23 23 22 22 21 21 21 20 18 16 14 13 12 12 12 11 9 8 7 7 7 7 7 7 8 9 9
16 15 15 15 15 16 17 19 20 22 25 26 25 26 28 29 30 30 30 31 31 31 30 29 28 27 27 26 25 24 24 24 24 23 20 17 14 13 13 13 12 11 10 10 9 9 8 8 8 8 8 9
16 16 16 16 17 17 18 20 22 26 29 29 28 30 31 34 35 35 36 35 35 35 34 33 31 31 30 30 29 29 28 28 27 27 26 23 19 15 13 13 13 13 12 11 11 11 11 10 10 9 9 9
16 16 17 18 18 18 19 20 24 28 30 30 31 32 35 39 41 41 41 40 40 40 38 37 35 35 35 34 34 33 33 33 32 33 32 31 27 22 17 14 14 14 14 14 13 12 12 12 12 11 11 10